GEFSSE_prec_meanprecacc_192.txt.gz
Total_Precipitation_Accumulation
0.22 0.22 0.36 0.29 0.22 0.28 0.38 0.38 0.33 0.29 0.27 0.30 0.32 0.32 0.33 0.37 0.35 0.33 0.32 0.36 0.38 0.41 0.43 0.48 0.45 0.48 0.50 0.46 0.44 0.38 0.37 0.37 0.45 0.53 0.57 0.56 0.62 0.82 1.09 1.16 1.20 0.75 0.67
0.09 0.12 0.26 0.25 0.19 0.23 0.34 0.36 0.34 0.33 0.29 0.30 0.35 0.40 0.48 0.48 0.40 0.34 0.36 0.37 0.37 0.40 0.39 0.36 0.37 0.39 0.42 0.39 0.33 0.30 0.37 0.48 0.59 0.74 0.72 0.61 0.63 0.84 1.02 1.03 1.20 0.71 0.61
0.07 0.08 0.17 0.23 0.20 0.21 0.31 0.34 0.37 0.42 0.41 0.39 0.41 0.44 0.50 0.44 0.37 0.34 0.37 0.36 0.35 0.37 0.34 0.32 0.31 0.30 0.33 0.33 0.32 0.36 0.47 0.63 0.84 0.99 1.11 0.69 0.47 0.78 0.89 0.88 0.79 0.64 0.61
0.10 0.08 0.10 0.17 0.20 0.22 0.31 0.37 0.51 0.52 0.50 0.45 0.47 0.45 0.42 0.36 0.33 0.31 0.33 0.36 0.38 0.33 0.30 0.27 0.26 0.25 0.27 0.27 0.32 0.44 0.57 0.72 0.90 1.27 1.30 0.66 0.38 0.54 0.69 0.70 0.61 0.57 0.54
0.11 0.09 0.10 0.16 0.18 0.27 0.34 0.40 0.46 0.41 0.39 0.40 0.43 0.42 0.41 0.35 0.35 0.35 0.34 0.34 0.35 0.32 0.27 0.24 0.24 0.23 0.24 0.27 0.35 0.47 0.59 0.71 0.98 1.19 0.85 0.74 0.69 0.59 0.55 0.59 0.59 0.56 0.46
0.12 0.10 0.13 0.18 0.21 0.26 0.27 0.29 0.36 0.39 0.36 0.37 0.39 0.42 0.40 0.38 0.40 0.36 0.28 0.28 0.30 0.32 0.29 0.25 0.24 0.23 0.24 0.29 0.36 0.45 0.58 0.78 0.95 0.67 0.58 0.56 0.58 0.61 0.54 0.68 0.75 0.64 0.52
0.16 0.12 0.15 0.22 0.25 0.26 0.24 0.27 0.29 0.33 0.36 0.40 0.40 0.39 0.38 0.36 0.37 0.35 0.28 0.25 0.28 0.29 0.27 0.26 0.25 0.27 0.30 0.33 0.38 0.47 0.64 0.92 0.78 0.51 0.55 0.63 0.58 0.54 0.63 0.85 1.00 0.87 0.72
0.27 0.19 0.22 0.30 0.29 0.27 0.27 0.28 0.29 0.30 0.32 0.33 0.34 0.35 0.33 0.30 0.34 0.38 0.35 0.28 0.26 0.28 0.25 0.25 0.24 0.29 0.35 0.39 0.45 0.50 0.62 0.69 0.43 0.40 0.41 0.49 0.43 0.45 0.69 0.91 1.07 1.05 0.95
0.44 0.29 0.29 0.33 0.34 0.36 0.41 0.36 0.35 0.34 0.34 0.35 0.37 0.37 0.34 0.31 0.31 0.34 0.40 0.37 0.32 0.34 0.31 0.30 0.28 0.31 0.36 0.41 0.46 0.50 0.58 0.59 0.46 0.47 0.44 0.46 0.44 0.62 0.97 1.10 1.11 1.10 1.07
0.83 0.58 0.43 0.37 0.41 0.40 0.38 0.41 0.43 0.42 0.39 0.38 0.39 0.36 0.37 0.38 0.37 0.40 0.39 0.42 0.43 0.45 0.47 0.43 0.41 0.40 0.40 0.41 0.47 0.53 0.55 0.54 0.57 0.56 0.53 0.41 0.51 0.80 1.13 1.26 1.28 1.22 1.13
1.01 0.80 0.66 0.54 0.47 0.44 0.39 0.40 0.51 0.52 0.49 0.48 0.53 0.49 0.56 0.70 0.64 0.69 0.60 0.67 0.66 0.67 0.70 0.68 0.69 0.70 0.65 0.54 0.63 0.71 0.62 0.65 0.71 0.65 0.53 0.43 0.60 0.90 1.20 1.33 1.33 1.31 1.19
1.18 1.00 0.87 0.72 0.59 0.51 0.50 0.63 0.86 0.74 0.74 0.81 0.92 0.94 1.12 1.30 1.26 0.82 0.84 1.10 1.17 1.24 1.20 1.18 1.18 1.00 0.87 0.82 1.20 1.40 0.80 0.76 0.83 0.74 0.63 0.65 0.89 1.15 1.42 1.39 1.30 1.32 1.21
1.55 1.34 1.13 0.98 0.82 0.74 0.88 0.81 0.93 1.07 1.16 1.19 1.23 1.24 1.40 1.32 1.13 0.96 1.06 1.33 1.58 1.64 1.52 1.69 1.74 1.40 1.46 1.69 1.69 1.53 1.07 1.18 1.16 1.06 0.92 1.06 1.28 1.57 1.93 1.75 1.45 1.32 1.25
1.77 1.65 1.60 1.37 1.21 1.30 1.24 0.98 0.93 0.97 1.08 1.24 1.48 1.43 1.52 1.70 1.60 1.54 1.58 1.64 1.78 1.97 2.21 2.16 2.31 2.14 2.05 1.93 1.92 1.80 1.56 1.58 1.53 1.64 1.58 1.45 1.52 1.76 2.21 2.19 1.76 1.48 1.32
1.95 1.90 1.89 1.84 1.67 1.74 1.57 1.36 1.19 1.30 1.31 1.36 1.49 1.62 1.58 1.79 1.95 1.95 1.90 1.87 1.80 1.89 2.05 2.22 2.26 2.60 2.70 2.33 1.95 1.84 1.82 1.89 1.78 1.78 1.71 1.64 1.57 1.69 2.04 2.25 2.11 1.88 1.59
2.35 2.36 2.18 2.12 2.12 2.10 2.01 1.96 1.88 1.66 1.68 1.62 1.59 1.59 1.62 1.83 2.06 2.17 2.05 2.02 1.90 1.86 2.02 2.19 2.36 2.82 2.84 2.66 2.22 2.00 1.92 1.88 1.72 1.65 1.73 1.92 1.75 1.64 1.75 2.01 2.20 2.16 2.01
2.79 2.79 2.78 2.74 2.87 2.79 2.60 2.46 2.27 2.09 1.93 1.90 1.94 1.95 1.85 1.87 2.04 2.06 1.91 1.83 1.86 2.00 2.15 2.20 2.35 2.65 2.41 2.39 2.18 2.03 1.84 1.65 1.50 1.44 1.60 1.78 1.67 1.61 1.72 1.84 2.01 2.09 2.18
3.04 3.16 3.30 3.33 3.32 3.16 3.10 3.00 2.76 2.54 2.37 2.20 2.11 2.16 2.00 1.92 1.95 2.09 1.91 1.76 2.05 2.12 2.20 2.41 2.54 2.56 2.52 2.52 2.29 1.98 1.75 1.63 1.33 1.23 1.25 1.33 1.51 1.33 1.57 1.78 1.82 1.87 2.08
3.51 3.73 3.87 3.89 3.74 3.47 3.45 3.42 3.27 3.08 2.73 2.38 2.20 2.11 1.98 1.93 2.01 2.26 2.23 2.28 2.38 2.41 2.40 2.29 2.59 2.60 2.51 2.51 2.23 1.96 1.60 1.41 1.22 1.08 1.01 0.95 1.08 1.16 1.23 1.39 1.51 1.59 1.94
4.04 4.40 4.21 4.09 4.23 4.10 3.92 3.75 3.45 3.01 2.60 2.43 2.34 2.15 2.04 2.04 2.12 2.45 2.31 2.27 2.35 2.47 2.48 2.43 2.44 2.47 2.27 2.24 2.09 1.84 1.46 1.12 1.03 0.94 0.81 0.78 0.82 0.76 0.90 1.10 1.32 1.20 1.53
4.09 4.46 4.59 4.55 4.40 4.18 3.75 3.41 3.16 2.93 2.76 2.50 2.32 2.22 2.09 1.99 2.09 2.38 2.28 2.37 2.32 2.31 2.32 2.34 2.37 2.25 1.92 2.11 2.20 1.79 1.33 1.01 0.97 0.75 0.68 0.69 0.69 0.66 0.81 1.06 1.21 1.21 1.17
3.75 4.19 4.47 4.59 4.45 4.06 3.62 3.35 3.19 3.13 2.78 2.49 2.43 2.43 2.23 2.24 2.22 2.20 2.26 2.23 2.26 2.35 2.25 2.20 2.27 2.09 1.75 1.87 2.03 2.11 1.58 1.24 0.95 0.66 0.70 0.77 0.82 0.86 0.86 0.93 1.06 1.21 1.22
3.27 3.58 3.70 3.84 3.78 3.59 3.57 3.52 3.40 3.34 2.91 2.72 2.69 2.66 2.47 2.44 2.36 2.31 2.25 2.13 2.07 1.95 1.92 1.97 2.01 1.99 1.83 1.73 1.90 2.17 1.82 1.40 1.17 0.83 0.75 0.79 0.93 1.08 1.04 1.01 1.02 1.18 1.29
2.84 3.15 3.38 3.43 3.36 3.24 3.30 3.28 3.13 2.92 2.73 2.78 2.98 2.92 2.63 2.40 2.18 1.95 1.81 1.84 1.83 1.76 1.73 1.55 1.61 1.69 1.62 1.50 1.62 1.72 1.77 1.79 1.71 1.18 0.84 0.77 0.90 1.03 1.11 1.00 0.93 1.05 1.23
2.44 2.69 2.96 3.22 3.28 3.19 3.20 3.12 3.09 2.94 2.88 2.89 2.80 2.69 2.42 2.17 1.87 1.59 1.49 1.56 1.57 1.51 1.42 1.36 1.44 1.35 1.28 1.27 1.42 1.59 1.68 1.74 1.72 1.62 1.26 1.13 1.09 0.96 0.96 0.95 1.01 1.03 1.08
2.06 2.18 2.30 2.53 2.78 2.90 2.89 2.84 2.83 2.74 2.70 2.60 2.39 2.20 1.97 1.78 1.53 1.31 1.21 1.32 1.40 1.41 1.37 1.31 1.34 1.24 1.24 1.36 1.36 1.43 1.59 1.56 1.58 1.68 1.45 1.33 1.22 0.99 0.98 1.06 1.05 1.11 1.11

GEFSSE_prec_meanprecacc_198.txt.gz
Total_Precipitation_Accumulation
0.25 0.25 0.41 0.33 0.24 0.31 0.41 0.41 0.36 0.31 0.29 0.33 0.34 0.34 0.35 0.38 0.37 0.36 0.35 0.39 0.43 0.46 0.47 0.51 0.49 0.52 0.53 0.48 0.46 0.39 0.38 0.39 0.47 0.54 0.58 0.58 0.64 0.86 1.14 1.20 1.22 0.76 0.68
0.11 0.14 0.30 0.28 0.20 0.26 0.36 0.39 0.37 0.35 0.32 0.33 0.37 0.42 0.49 0.50 0.42 0.37 0.39 0.41 0.41 0.45 0.43 0.38 0.38 0.40 0.44 0.40 0.35 0.31 0.39 0.50 0.62 0.76 0.74 0.63 0.66 0.87 1.05 1.06 1.22 0.72 0.63
0.08 0.09 0.19 0.26 0.21 0.23 0.33 0.37 0.40 0.45 0.44 0.41 0.43 0.46 0.51 0.47 0.41 0.38 0.40 0.39 0.39 0.41 0.36 0.34 0.33 0.31 0.35 0.34 0.34 0.38 0.50 0.66 0.87 1.01 1.13 0.70 0.49 0.80 0.91 0.90 0.81 0.66 0.63
0.12 0.08 0.11 0.19 0.22 0.24 0.34 0.40 0.55 0.56 0.52 0.47 0.49 0.47 0.43 0.38 0.35 0.33 0.36 0.39 0.42 0.37 0.34 0.29 0.27 0.26 0.28 0.28 0.34 0.47 0.62 0.77 0.95 1.30 1.31 0.67 0.39 0.55 0.69 0.71 0.62 0.59 0.55
0.13 0.10 0.12 0.18 0.20 0.30 0.39 0.45 0.50 0.44 0.41 0.42 0.46 0.44 0.43 0.38 0.37 0.36 0.36 0.37 0.39 0.36 0.31 0.26 0.26 0.25 0.26 0.29 0.38 0.51 0.64 0.77 1.04 1.22 0.86 0.75 0.69 0.61 0.56 0.60 0.61 0.58 0.47
0.13 0.12 0.15 0.20 0.25 0.32 0.33 0.35 0.41 0.43 0.40 0.40 0.42 0.44 0.42 0.41 0.42 0.38 0.31 0.31 0.32 0.34 0.31 0.27 0.25 0.24 0.25 0.31 0.38 0.49 0.64 0.86 1.00 0.69 0.59 0.57 0.58 0.63 0.55 0.70 0.77 0.65 0.53
0.17 0.14 0.18 0.28 0.32 0.34 0.31 0.32 0.34 0.38 0.41 0.44 0.44 0.41 0.40 0.38 0.39 0.37 0.30 0.27 0.29 0.31 0.28 0.27 0.26 0.28 0.32 0.36 0.40 0.51 0.69 0.99 0.81 0.52 0.56 0.63 0.59 0.55 0.64 0.86 1.02 0.89 0.73
0.29 0.23 0.27 0.36 0.37 0.37 0.33 0.33 0.34 0.35 0.36 0.36 0.36 0.37 0.35 0.32 0.36 0.40 0.38 0.30 0.28 0.29 0.26 0.25 0.24 0.30 0.37 0.41 0.47 0.53 0.67 0.75 0.46 0.42 0.42 0.50 0.44 0.46 0.70 0.92 1.08 1.06 0.96
0.44 0.31 0.33 0.41 0.44 0.42 0.46 0.42 0.41 0.39 0.38 0.38 0.38 0.39 0.36 0.33 0.34 0.36 0.43 0.39 0.33 0.34 0.32 0.30 0.28 0.31 0.37 0.43 0.48 0.52 0.62 0.66 0.51 0.49 0.44 0.46 0.44 0.63 0.97 1.10 1.11 1.11 1.08
0.84 0.62 0.53 0.49 0.48 0.46 0.46 0.49 0.49 0.46 0.41 0.40 0.41 0.38 0.39 0.40 0.39 0.42 0.41 0.44 0.44 0.46 0.48 0.44 0.41 0.41 0.41 0.43 0.49 0.55 0.59 0.58 0.60 0.57 0.53 0.42 0.51 0.81 1.13 1.27 1.28 1.23 1.13
1.02 0.83 0.72 0.62 0.57 0.57 0.50 0.50 0.58 0.56 0.51 0.51 0.54 0.50 0.58 0.72 0.66 0.71 0.62 0.69 0.68 0.68 0.71 0.69 0.70 0.70 0.66 0.56 0.64 0.73 0.65 0.69 0.74 0.66 0.53 0.43 0.61 0.91 1.21 1.34 1.34 1.31 1.20
1.19 1.01 0.89 0.75 0.64 0.58 0.57 0.70 0.91 0.77 0.76 0.82 0.93 0.94 1.13 1.32 1.29 0.84 0.87 1.12 1.19 1.26 1.22 1.19 1.20 1.02 0.88 0.83 1.21 1.42 0.84 0.81 0.86 0.76 0.64 0.66 0.90 1.16 1.43 1.39 1.31 1.33 1.22
1.58 1.36 1.14 0.98 0.82 0.76 0.91 0.84 0.97 1.10 1.18 1.21 1.24 1.25 1.41 1.34 1.15 0.97 1.08 1.35 1.59 1.65 1.54 1.70 1.75 1.41 1.48 1.72 1.72 1.56 1.10 1.20 1.19 1.08 0.94 1.07 1.29 1.57 1.93 1.75 1.45 1.32 1.26
1.82 1.68 1.62 1.38 1.22 1.30 1.25 0.99 0.94 0.99 1.09 1.25 1.49 1.44 1.53 1.72 1.62 1.56 1.61 1.65 1.79 1.98 2.22 2.18 2.33 2.16 2.08 1.96 1.96 1.84 1.59 1.62 1.56 1.66 1.60 1.46 1.53 1.76 2.22 2.19 1.77 1.48 1.32
1.99 1.93 1.91 1.86 1.68 1.76 1.58 1.37 1.20 1.31 1.32 1.37 1.50 1.63 1.59 1.80 1.97 1.97 1.93 1.89 1.81 1.89 2.06 2.25 2.28 2.62 2.73 2.35 1.98 1.87 1.86 1.92 1.83 1.81 1.73 1.65 1.57 1.70 2.05 2.26 2.11 1.88 1.60
2.36 2.37 2.19 2.14 2.14 2.11 2.02 1.97 1.89 1.68 1.69 1.63 1.59 1.60 1.63 1.85 2.07 2.18 2.06 2.03 1.91 1.87 2.03 2.20 2.37 2.84 2.87 2.68 2.25 2.02 1.94 1.90 1.75 1.69 1.75 1.93 1.76 1.64 1.76 2.02 2.21 2.17 2.01
2.79 2.80 2.80 2.76 2.89 2.81 2.62 2.47 2.28 2.11 1.95 1.91 1.96 1.97 1.87 1.89 2.06 2.08 1.93 1.84 1.87 2.01 2.17 2.21 2.36 2.67 2.44 2.41 2.21 2.05 1.86 1.68 1.52 1.46 1.62 1.79 1.68 1.62 1.73 1.86 2.03 2.10 2.19
3.05 3.17 3.32 3.35 3.34 3.18 3.12 3.02 2.77 2.56 2.39 2.22 2.15 2.19 2.02 1.94 1.96 2.11 1.93 1.77 2.06 2.14 2.22 2.43 2.56 2.59 2.55 2.55 2.32 2.01 1.78 1.65 1.35 1.25 1.26 1.35 1.53 1.36 1.59 1.80 1.84 1.88 2.10
3.52 3.75 3.90 3.91 3.76 3.49 3.48 3.44 3.28 3.10 2.75 2.39 2.23 2.13 2.00 1.94 2.03 2.28 2.24 2.30 2.39 2.42 2.42 2.31 2.60 2.61 2.54 2.54 2.26 1.98 1.63 1.44 1.24 1.11 1.05 0.99 1.11 1.19 1.27 1.42 1.54 1.61 1.96
4.05 4.42 4.22 4.10 4.24 4.11 3.94 3.76 3.46 3.03 2.62 2.46 2.36 2.16 2.05 2.05 2.13 2.47 2.32 2.28 2.36 2.49 2.51 2.46 2.47 2.49 2.28 2.25 2.10 1.86 1.48 1.16 1.06 0.98 0.85 0.83 0.87 0.81 0.95 1.18 1.41 1.25 1.56
4.11 4.48 4.60 4.57 4.42 4.20 3.77 3.42 3.17 2.94 2.79 2.53 2.34 2.24 2.11 2.01 2.10 2.40 2.30 2.39 2.34 2.34 2.35 2.39 2.41 2.27 1.93 2.12 2.22 1.81 1.36 1.06 1.04 0.81 0.73 0.74 0.75 0.73 0.91 1.17 1.33 1.32 1.22
3.78 4.22 4.48 4.61 4.46 4.08 3.63 3.37 3.21 3.15 2.81 2.51 2.46 2.46 2.26 2.26 2.24 2.23 2.30 2.26 2.30 2.38 2.28 2.24 2.31 2.15 1.79 1.91 2.07 2.14 1.60 1.26 0.97 0.69 0.74 0.83 0.91 0.97 0.98 1.07 1.21 1.32 1.30
3.32 3.61 3.72 3.86 3.80 3.62 3.60 3.56 3.45 3.38 2.95 2.78 2.74 2.70 2.52 2.48 2.40 2.35 2.29 2.18 2.11 1.99 1.95 2.00 2.05 2.04 1.88 1.78 1.95 2.22 1.85 1.42 1.19 0.84 0.79 0.86 1.04 1.23 1.20 1.21 1.20 1.32 1.41
2.86 3.17 3.40 3.44 3.38 3.27 3.34 3.33 3.17 2.95 2.77 2.84 3.05 2.99 2.69 2.47 2.26 2.01 1.86 1.88 1.87 1.81 1.77 1.57 1.64 1.74 1.68 1.53 1.65 1.76 1.81 1.83 1.75 1.20 0.86 0.81 0.98 1.13 1.25 1.16 1.14 1.25 1.40
2.45 2.70 2.97 3.23 3.30 3.23 3.24 3.15 3.13 2.99 2.95 2.95 2.87 2.75 2.49 2.25 1.95 1.66 1.55 1.62 1.63 1.57 1.48 1.41 1.49 1.42 1.35 1.31 1.46 1.64 1.74 1.80 1.78 1.67 1.29 1.18 1.16 1.02 1.05 1.08 1.20 1.26 1.27
2.07 2.19 2.32 2.55 2.82 2.96 2.96 2.91 2.90 2.81 2.75 2.65 2.45 2.26 2.04 1.85 1.61 1.37 1.26 1.37 1.46 1.48 1.44 1.38 1.40 1.30 1.30 1.40 1.39 1.48 1.66 1.64 1.65 1.75 1.49 1.36 1.27 1.03 1.02 1.13 1.16 1.30 1.33

GEFSSE_prec_meanprecacc_204.txt.gz
Total_Precipitation_Accumulation
0.32 0.35 0.51 0.39 0.28 0.34 0.44 0.45 0.39 0.35 0.33 0.37 0.38 0.37 0.38 0.41 0.39 0.37 0.37 0.41 0.46 0.50 0.50 0.55 0.53 0.56 0.57 0.52 0.50 0.43 0.40 0.40 0.49 0.58 0.62 0.62 0.69 0.91 1.18 1.23 1.24 0.79 0.73
0.14 0.21 0.38 0.32 0.24 0.30 0.40 0.42 0.39 0.37 0.34 0.36 0.41 0.44 0.51 0.52 0.43 0.39 0.42 0.43 0.44 0.49 0.45 0.41 0.41 0.42 0.47 0.43 0.37 0.32 0.40 0.52 0.65 0.81 0.79 0.68 0.72 0.92 1.08 1.08 1.24 0.75 0.68
0.10 0.12 0.24 0.30 0.24 0.26 0.37 0.40 0.42 0.47 0.47 0.45 0.46 0.49 0.53 0.48 0.43 0.40 0.43 0.41 0.42 0.43 0.38 0.36 0.34 0.33 0.36 0.36 0.36 0.40 0.52 0.69 0.92 1.06 1.17 0.72 0.53 0.84 0.94 0.92 0.83 0.69 0.66
0.13 0.09 0.15 0.24 0.25 0.27 0.37 0.43 0.58 0.59 0.56 0.51 0.52 0.49 0.45 0.40 0.37 0.35 0.39 0.41 0.44 0.39 0.36 0.31 0.28 0.27 0.29 0.30 0.36 0.49 0.64 0.79 0.98 1.33 1.32 0.67 0.40 0.58 0.72 0.74 0.64 0.62 0.58
0.15 0.12 0.16 0.21 0.23 0.33 0.42 0.49 0.54 0.47 0.45 0.46 0.49 0.47 0.45 0.41 0.40 0.38 0.38 0.38 0.40 0.37 0.33 0.27 0.26 0.26 0.27 0.31 0.40 0.54 0.67 0.80 1.08 1.23 0.87 0.75 0.70 0.64 0.59 0.63 0.65 0.61 0.49
0.15 0.15 0.19 0.24 0.28 0.35 0.36 0.38 0.44 0.47 0.43 0.43 0.45 0.46 0.45 0.44 0.44 0.40 0.33 0.32 0.33 0.35 0.33 0.28 0.26 0.26 0.28 0.35 0.42 0.53 0.70 0.90 1.03 0.69 0.59 0.57 0.60 0.66 0.57 0.72 0.81 0.69 0.56
0.20 0.19 0.23 0.33 0.36 0.37 0.34 0.36 0.37 0.41 0.44 0.47 0.46 0.43 0.42 0.40 0.41 0.39 0.32 0.28 0.30 0.31 0.29 0.28 0.27 0.31 0.35 0.39 0.44 0.54 0.73 1.02 0.82 0.53 0.56 0.63 0.60 0.58 0.65 0.88 1.04 0.91 0.75
0.36 0.30 0.34 0.42 0.42 0.41 0.38 0.37 0.37 0.38 0.39 0.38 0.37 0.39 0.37 0.34 0.38 0.42 0.39 0.30 0.28 0.29 0.27 0.26 0.27 0.34 0.41 0.45 0.51 0.57 0.70 0.76 0.46 0.42 0.42 0.50 0.45 0.47 0.70 0.93 1.09 1.07 0.97
0.52 0.37 0.40 0.50 0.51 0.48 0.52 0.47 0.44 0.42 0.41 0.39 0.39 0.40 0.38 0.36 0.35 0.38 0.43 0.39 0.33 0.35 0.33 0.31 0.30 0.35 0.41 0.47 0.52 0.57 0.65 0.68 0.51 0.49 0.44 0.46 0.46 0.64 0.98 1.11 1.12 1.12 1.09
0.92 0.72 0.65 0.58 0.54 0.52 0.52 0.53 0.52 0.49 0.43 0.41 0.42 0.39 0.41 0.42 0.41 0.44 0.42 0.44 0.44 0.47 0.49 0.45 0.44 0.43 0.45 0.47 0.54 0.60 0.62 0.59 0.60 0.57 0.53 0.42 0.53 0.81 1.14 1.27 1.29 1.24 1.14
1.17 1.01 0.82 0.66 0.62 0.62 0.56 0.55 0.62 0.59 0.54 0.52 0.55 0.51 0.59 0.73 0.67 0.73 0.63 0.70 0.68 0.69 0.73 0.71 0.74 0.74 0.69 0.59 0.69 0.78 0.68 0.70 0.74 0.66 0.53 0.44 0.62 0.91 1.21 1.34 1.34 1.32 1.20
1.26 1.08 0.95 0.82 0.70 0.62 0.61 0.73 0.93 0.78 0.77 0.83 0.93 0.95 1.13 1.32 1.29 0.86 0.89 1.13 1.20 1.27 1.24 1.23 1.24 1.06 0.91 0.85 1.25 1.45 0.85 0.82 0.86 0.76 0.65 0.68 0.92 1.18 1.43 1.40 1.31 1.33 1.22
1.60 1.40 1.20 1.03 0.87 0.80 0.94 0.87 0.98 1.12 1.19 1.21 1.24 1.25 1.41 1.34 1.15 0.98 1.09 1.35 1.60 1.66 1.55 1.72 1.78 1.44 1.50 1.73 1.73 1.57 1.11 1.21 1.19 1.09 0.96 1.09 1.31 1.60 1.97 1.77 1.47 1.33 1.26
1.82 1.68 1.64 1.41 1.25 1.33 1.27 1.01 0.95 1.00 1.10 1.25 1.49 1.45 1.53 1.72 1.62 1.56 1.61 1.65 1.79 1.98 2.22 2.18 2.33 2.18 2.10 1.98 1.97 1.85 1.61 1.63 1.57 1.68 1.61 1.47 1.54 1.79 2.26 2.23 1.79 1.50 1.33
2.00 1.93 1.92 1.87 1.71 1.78 1.60 1.40 1.22 1.33 1.33 1.38 1.51 1.64 1.59 1.81 1.98 1.97 1.93 1.90 1.81 1.90 2.06 2.25 2.29 2.63 2.74 2.38 2.01 1.89 1.87 1.94 1.86 1.84 1.74 1.66 1.59 1.72 2.08 2.31 2.16 1.91 1.62
2.37 2.38 2.20 2.15 2.15 2.13 2.04 2.00 1.92 1.70 1.71 1.65 1.61 1.61 1.64 1.86 2.09 2.19 2.06 2.04 1.91 1.87 2.03 2.21 2.38 2.85 2.89 2.70 2.27 2.04 1.96 1.93 1.77 1.70 1.76 1.94 1.77 1.66 1.79 2.06 2.27 2.22 2.05
2.81 2.81 2.81 2.77 2.90 2.83 2.65 2.49 2.31 2.14 1.98 1.95 1.99 1.99 1.88 1.90 2.07 2.09 1.93 1.84 1.88 2.02 2.18 2.22 2.37 2.69 2.45 2.43 2.23 2.07 1.88 1.70 1.53 1.47 1.64 1.81 1.70 1.64 1.77 1.90 2.07 2.16 2.25
3.07 3.19 3.34 3.36 3.36 3.21 3.15 3.04 2.80 2.59 2.43 2.26 2.18 2.22 2.04 1.96 1.98 2.13 1.95 1.78 2.07 2.15 2.24 2.45 2.58 2.61 2.57 2.58 2.35 2.02 1.80 1.67 1.36 1.26 1.28 1.38 1.56 1.37 1.62 1.85 1.90 1.94 2.16
3.54 3.77 3.92 3.94 3.79 3.52 3.52 3.47 3.31 3.13 2.79 2.43 2.27 2.18 2.03 1.97 2.05 2.31 2.27 2.33 2.41 2.44 2.44 2.34 2.63 2.63 2.55 2.56 2.28 2.00 1.64 1.45 1.25 1.12 1.06 1.02 1.15 1.22 1.30 1.45 1.60 1.69 2.04
4.08 4.44 4.25 4.13 4.28 4.15 3.97 3.79 3.49 3.06 2.65 2.49 2.41 2.22 2.09 2.08 2.16 2.50 2.36 2.32 2.42 2.53 2.54 2.49 2.50 2.51 2.29 2.27 2.11 1.87 1.49 1.17 1.08 0.99 0.87 0.85 0.89 0.85 1.01 1.23 1.45 1.31 1.65
4.13 4.50 4.64 4.61 4.48 4.24 3.80 3.45 3.19 2.96 2.80 2.55 2.38 2.29 2.17 2.06 2.15 2.45 2.34 2.44 2.41 2.41 2.41 2.43 2.45 2.31 1.96 2.15 2.25 1.83 1.37 1.07 1.05 0.82 0.74 0.77 0.78 0.77 0.95 1.22 1.39 1.37 1.30
3.79 4.24 4.52 4.66 4.53 4.13 3.67 3.41 3.25 3.18 2.83 2.52 2.48 2.49 2.31 2.32 2.31 2.31 2.37 2.33 2.36 2.44 2.34 2.29 2.35 2.18 1.83 1.96 2.13 2.18 1.62 1.27 0.98 0.70 0.75 0.84 0.93 1.00 1.02 1.11 1.26 1.38 1.36
3.34 3.64 3.75 3.90 3.84 3.67 3.65 3.62 3.51 3.43 2.99 2.81 2.77 2.73 2.57 2.54 2.49 2.44 2.38 2.27 2.19 2.06 2.02 2.04 2.08 2.08 1.92 1.83 2.00 2.27 1.88 1.43 1.19 0.85 0.80 0.87 1.06 1.25 1.22 1.24 1.24 1.37 1.47
2.87 3.20 3.44 3.50 3.43 3.32 3.38 3.38 3.23 3.00 2.81 2.87 3.10 3.05 2.78 2.55 2.34 2.10 1.95 1.97 1.95 1.88 1.82 1.61 1.68 1.78 1.73 1.57 1.70 1.80 1.84 1.86 1.77 1.20 0.87 0.82 1.00 1.15 1.26 1.18 1.16 1.28 1.45
2.47 2.74 3.01 3.28 3.35 3.28 3.29 3.20 3.17 3.02 2.98 2.99 2.91 2.81 2.58 2.34 2.03 1.74 1.64 1.70 1.69 1.63 1.54 1.46 1.54 1.46 1.39 1.36 1.50 1.67 1.77 1.83 1.82 1.69 1.30 1.20 1.17 1.03 1.06 1.10 1.22 1.29 1.32
2.12 2.24 2.38 2.59 2.85 3.00 3.01 2.98 2.96 2.85 2.79 2.69 2.51 2.32 2.12 1.94 1.69 1.45 1.35 1.45 1.54 1.55 1.51 1.46 1.48 1.37 1.37 1.45 1.42 1.51 1.69 1.67 1.68 1.78 1.51 1.38 1.29 1.05 1.04 1.15 1.17 1.32 1.38

GEFSSE_prec_meanprecacc_210.txt.gz
Total_Precipitation_Accumulation
0.41 0.48 0.63 0.50 0.35 0.41 0.51 0.52 0.46 0.42 0.39 0.42 0.44 0.42 0.41 0.44 0.42 0.40 0.41 0.46 0.51 0.54 0.54 0.58 0.56 0.60 0.61 0.56 0.56 0.48 0.43 0.43 0.52 0.60 0.66 0.66 0.73 0.95 1.22 1.28 1.29 0.84 0.79
0.22 0.31 0.50 0.42 0.30 0.36 0.46 0.48 0.45 0.44 0.40 0.42 0.47 0.49 0.56 0.57 0.48 0.43 0.46 0.47 0.48 0.53 0.49 0.44 0.44 0.46 0.50 0.47 0.41 0.36 0.42 0.55 0.68 0.85 0.84 0.72 0.75 0.94 1.12 1.12 1.28 0.78 0.70
0.17 0.21 0.33 0.37 0.30 0.32 0.43 0.46 0.48 0.54 0.55 0.52 0.52 0.55 0.58 0.53 0.48 0.46 0.47 0.44 0.45 0.47 0.40 0.38 0.36 0.34 0.38 0.38 0.39 0.42 0.54 0.72 0.95 1.09 1.20 0.75 0.55 0.85 0.96 0.95 0.86 0.72 0.69
0.19 0.17 0.22 0.29 0.30 0.32 0.42 0.48 0.64 0.65 0.62 0.56 0.57 0.55 0.49 0.46 0.44 0.41 0.43 0.44 0.46 0.42 0.38 0.33 0.30 0.29 0.31 0.31 0.37 0.50 0.65 0.81 1.00 1.34 1.33 0.69 0.42 0.59 0.75 0.77 0.68 0.65 0.61
0.19 0.20 0.24 0.28 0.27 0.38 0.46 0.53 0.59 0.53 0.50 0.50 0.54 0.52 0.50 0.47 0.45 0.43 0.43 0.42 0.43 0.40 0.35 0.29 0.28 0.28 0.29 0.33 0.42 0.56 0.69 0.81 1.08 1.24 0.87 0.77 0.74 0.66 0.61 0.66 0.69 0.65 0.53
0.19 0.23 0.27 0.30 0.32 0.39 0.40 0.43 0.50 0.52 0.47 0.48 0.50 0.52 0.52 0.49 0.50 0.44 0.37 0.36 0.36 0.38 0.34 0.30 0.28 0.29 0.31 0.38 0.45 0.56 0.72 0.92 1.04 0.71 0.60 0.58 0.62 0.69 0.59 0.74 0.84 0.71 0.58
0.24 0.29 0.31 0.38 0.41 0.42 0.39 0.41 0.43 0.46 0.48 0.51 0.50 0.48 0.48 0.45 0.46 0.43 0.35 0.30 0.31 0.34 0.32 0.30 0.29 0.34 0.38 0.44 0.49 0.59 0.75 1.04 0.83 0.54 0.57 0.65 0.62 0.60 0.68 0.90 1.05 0.92 0.76
0.40 0.40 0.44 0.49 0.48 0.48 0.45 0.44 0.43 0.43 0.43 0.41 0.41 0.44 0.41 0.38 0.42 0.45 0.42 0.33 0.31 0.32 0.30 0.29 0.30 0.36 0.44 0.49 0.56 0.61 0.73 0.78 0.47 0.42 0.43 0.52 0.47 0.50 0.72 0.94 1.10 1.08 0.98
0.61 0.49 0.51 0.57 0.58 0.56 0.60 0.54 0.49 0.45 0.44 0.42 0.42 0.43 0.41 0.38 0.37 0.40 0.46 0.42 0.36 0.39 0.36 0.35 0.34 0.37 0.45 0.53 0.56 0.61 0.69 0.70 0.52 0.49 0.45 0.48 0.47 0.66 0.99 1.12 1.13 1.12 1.09
1.03 0.82 0.75 0.66 0.61 0.59 0.59 0.59 0.57 0.52 0.46 0.45 0.45 0.41 0.44 0.43 0.42 0.46 0.44 0.46 0.46 0.49 0.53 0.49 0.47 0.47 0.49 0.51 0.57 0.63 0.65 0.61 0.61 0.57 0.53 0.43 0.54 0.82 1.14 1.28 1.29 1.24 1.14
1.30 1.12 0.91 0.74 0.69 0.71 0.63 0.60 0.66 0.63 0.58 0.57 0.59 0.55 0.63 0.75 0.69 0.75 0.64 0.71 0.69 0.71 0.76 0.75 0.76 0.77 0.72 0.62 0.72 0.80 0.69 0.71 0.75 0.67 0.53 0.45 0.63 0.93 1.22 1.35 1.35 1.32 1.21
1.40 1.19 1.05 0.88 0.76 0.70 0.67 0.77 0.98 0.81 0.80 0.88 0.98 0.98 1.16 1.35 1.32 0.87 0.90 1.15 1.21 1.27 1.26 1.26 1.27 1.08 0.92 0.86 1.27 1.46 0.86 0.82 0.87 0.77 0.65 0.69 0.94 1.20 1.45 1.41 1.32 1.34 1.22
1.66 1.46 1.26 1.08 0.91 0.84 0.98 0.90 1.02 1.14 1.22 1.25 1.27 1.27 1.44 1.36 1.16 0.99 1.11 1.37 1.61 1.67 1.56 1.74 1.79 1.45 1.51 1.75 1.76 1.58 1.11 1.21 1.20 1.09 0.96 1.10 1.32 1.62 2.00 1.80 1.49 1.34 1.27
1.83 1.71 1.67 1.44 1.28 1.35 1.29 1.03 0.97 1.02 1.12 1.28 1.52 1.48 1.56 1.75 1.64 1.58 1.63 1.67 1.80 2.00 2.24 2.19 2.35 2.20 2.12 1.99 1.98 1.86 1.62 1.63 1.58 1.68 1.62 1.47 1.55 1.82 2.29 2.26 1.82 1.52 1.35
2.01 1.95 1.94 1.90 1.73 1.80 1.62 1.42 1.23 1.35 1.35 1.41 1.55 1.68 1.63 1.85 2.00 2.00 1.95 1.93 1.83 1.91 2.08 2.27 2.31 2.66 2.77 2.40 2.02 1.89 1.88 1.95 1.86 1.84 1.75 1.67 1.61 1.74 2.11 2.35 2.20 1.96 1.65
2.38 2.39 2.21 2.17 2.16 2.14 2.06 2.02 1.94 1.72 1.74 1.67 1.64 1.64 1.67 1.89 2.12 2.23 2.10 2.07 1.94 1.90 2.05 2.24 2.41 2.89 2.92 2.73 2.30 2.06 1.98 1.94 1.77 1.71 1.78 1.95 1.78 1.67 1.80 2.09 2.30 2.27 2.11
2.82 2.83 2.82 2.78 2.91 2.84 2.66 2.51 2.33 2.17 2.00 1.97 2.02 2.02 1.92 1.94 2.13 2.14 1.98 1.88 1.92 2.06 2.23 2.26 2.41 2.72 2.49 2.46 2.26 2.11 1.90 1.71 1.54 1.48 1.65 1.83 1.71 1.65 1.78 1.93 2.12 2.21 2.31
3.09 3.21 3.35 3.37 3.37 3.22 3.18 3.09 2.84 2.62 2.45 2.28 2.21 2.26 2.09 2.01 2.03 2.18 1.99 1.83 2.13 2.19 2.28 2.50 2.64 2.66 2.61 2.61 2.38 2.06 1.82 1.69 1.37 1.27 1.29 1.39 1.58 1.39 1.64 1.87 1.92 1.98 2.22
3.55 3.78 3.93 3.94 3.80 3.54 3.55 3.51 3.35 3.17 2.83 2.47 2.31 2.23 2.08 2.01 2.10 2.35 2.31 2.39 2.47 2.50 2.51 2.39 2.68 2.71 2.61 2.60 2.30 2.03 1.66 1.47 1.28 1.13 1.07 1.03 1.17 1.25 1.34 1.47 1.62 1.71 2.08
4.09 4.46 4.26 4.14 4.30 4.17 4.00 3.82 3.54 3.10 2.70 2.55 2.47 2.29 2.15 2.13 2.21 2.55 2.39 2.39 2.49 2.62 2.65 2.57 2.58 2.60 2.35 2.32 2.14 1.90 1.52 1.19 1.10 1.02 0.89 0.86 0.90 0.86 1.03 1.26 1.49 1.33 1.68
4.14 4.52 4.66 4.64 4.51 4.26 3.83 3.49 3.24 3.02 2.87 2.62 2.44 2.36 2.22 2.10 2.20 2.52 2.40 2.53 2.51 2.52 2.53 2.54 2.55 2.40 2.03 2.23 2.32 1.89 1.41 1.09 1.07 0.85 0.76 0.79 0.80 0.79 0.98 1.26 1.43 1.42 1.35
3.80 4.26 4.54 4.68 4.55 4.15 3.69 3.45 3.30 3.23 2.88 2.58 2.53 2.54 2.36 2.37 2.36 2.36 2.45 2.42 2.46 2.55 2.47 2.41 2.46 2.28 1.91 2.05 2.23 2.28 1.69 1.30 1.00 0.71 0.77 0.87 0.95 1.02 1.05 1.15 1.30 1.42 1.41
3.34 3.65 3.77 3.91 3.87 3.69 3.67 3.65 3.55 3.48 3.03 2.85 2.82 2.78 2.63 2.58 2.52 2.49 2.44 2.34 2.27 2.15 2.13 2.19 2.21 2.19 2.02 1.93 2.11 2.39 1.97 1.50 1.24 0.87 0.81 0.88 1.08 1.28 1.25 1.27 1.27 1.41 1.54
2.88 3.23 3.46 3.51 3.45 3.34 3.41 3.41 3.26 3.04 2.85 2.93 3.16 3.10 2.83 2.58 2.38 2.14 2.00 2.05 2.04 1.94 1.90 1.70 1.75 1.87 1.81 1.67 1.81 1.90 1.93 1.95 1.86 1.26 0.90 0.84 1.01 1.17 1.29 1.20 1.18 1.32 1.52
2.50 2.78 3.03 3.29 3.36 3.29 3.31 3.22 3.19 3.06 3.04 3.05 2.97 2.87 2.63 2.39 2.07 1.77 1.67 1.75 1.76 1.69 1.60 1.52 1.61 1.54 1.47 1.45 1.61 1.78 1.85 1.92 1.90 1.76 1.36 1.25 1.21 1.07 1.09 1.13 1.25 1.33 1.38
2.14 2.25 2.39 2.59 2.86 3.00 3.03 3.00 2.99 2.91 2.86 2.77 2.59 2.39 2.19 2.01 1.74 1.49 1.38 1.49 1.59 1.62 1.58 1.53 1.57 1.45 1.44 1.53 1.52 1.59 1.78 1.76 1.78 1.89 1.62 1.47 1.38 1.11 1.09 1.19 1.24 1.40 1.46

GEFSSE_prec_meanprecacc_216.txt.gz
Total_Precipitation_Accumulation
0.53 0.62 0.82 0.63 0.44 0.48 0.57 0.59 0.54 0.49 0.45 0.47 0.50 0.46 0.45 0.49 0.48 0.46 0.45 0.51 0.56 0.60 0.60 0.65 0.61 0.63 0.65 0.59 0.60 0.50 0.45 0.45 0.53 0.62 0.68 0.68 0.75 0.99 1.27 1.35 1.39 0.89 0.85
0.30 0.38 0.60 0.53 0.38 0.41 0.52 0.54 0.51 0.50 0.45 0.48 0.54 0.55 0.60 0.61 0.54 0.47 0.49 0.52 0.55 0.59 0.54 0.49 0.47 0.49 0.53 0.49 0.44 0.38 0.44 0.56 0.70 0.87 0.87 0.73 0.77 0.97 1.18 1.22 1.37 0.81 0.74
0.23 0.30 0.41 0.45 0.37 0.38 0.50 0.54 0.56 0.62 0.60 0.58 0.59 0.61 0.64 0.58 0.53 0.50 0.50 0.49 0.51 0.52 0.45 0.42 0.40 0.37 0.40 0.40 0.41 0.44 0.55 0.74 0.99 1.16 1.31 0.81 0.57 0.88 1.00 1.00 0.90 0.74 0.71
0.25 0.26 0.28 0.36 0.37 0.39 0.50 0.56 0.71 0.72 0.67 0.62 0.63 0.60 0.55 0.52 0.49 0.47 0.48 0.48 0.51 0.47 0.42 0.37 0.34 0.31 0.33 0.32 0.39 0.51 0.66 0.84 1.05 1.44 1.43 0.72 0.43 0.60 0.77 0.79 0.70 0.69 0.64
0.25 0.27 0.30 0.34 0.35 0.45 0.54 0.61 0.67 0.60 0.54 0.55 0.60 0.58 0.56 0.53 0.50 0.47 0.47 0.45 0.47 0.44 0.39 0.32 0.31 0.31 0.31 0.33 0.43 0.57 0.70 0.83 1.15 1.32 0.92 0.80 0.75 0.68 0.63 0.68 0.72 0.68 0.55
0.24 0.27 0.30 0.34 0.38 0.45 0.46 0.49 0.56 0.57 0.51 0.52 0.54 0.56 0.57 0.55 0.55 0.49 0.42 0.39 0.40 0.41 0.38 0.34 0.32 0.31 0.33 0.39 0.46 0.58 0.74 0.96 1.10 0.74 0.63 0.61 0.63 0.71 0.63 0.78 0.86 0.74 0.60
0.31 0.33 0.34 0.41 0.46 0.47 0.44 0.47 0.48 0.50 0.52 0.55 0.53 0.51 0.51 0.49 0.50 0.47 0.39 0.34 0.35 0.36 0.34 0.33 0.33 0.37 0.41 0.45 0.50 0.60 0.77 1.08 0.86 0.56 0.61 0.67 0.63 0.61 0.70 0.92 1.07 0.95 0.78
0.50 0.49 0.49 0.54 0.52 0.52 0.49 0.49 0.46 0.46 0.46 0.44 0.43 0.45 0.43 0.40 0.44 0.48 0.45 0.36 0.33 0.34 0.31 0.31 0.32 0.39 0.46 0.51 0.57 0.62 0.75 0.81 0.50 0.44 0.45 0.53 0.47 0.51 0.73 0.95 1.11 1.09 0.99
0.75 0.61 0.58 0.64 0.64 0.60 0.66 0.60 0.54 0.48 0.46 0.45 0.44 0.45 0.43 0.39 0.39 0.42 0.48 0.45 0.37 0.40 0.38 0.37 0.35 0.40 0.47 0.55 0.58 0.62 0.72 0.73 0.55 0.52 0.46 0.48 0.48 0.67 1.00 1.13 1.14 1.13 1.10
1.19 0.96 0.83 0.74 0.67 0.64 0.64 0.64 0.61 0.55 0.49 0.48 0.47 0.43 0.46 0.46 0.44 0.48 0.46 0.49 0.48 0.51 0.55 0.51 0.48 0.48 0.50 0.52 0.58 0.64 0.67 0.63 0.62 0.59 0.54 0.43 0.55 0.83 1.15 1.28 1.30 1.24 1.15
1.44 1.27 1.01 0.82 0.78 0.78 0.68 0.63 0.71 0.68 0.62 0.62 0.62 0.58 0.71 0.85 0.74 0.79 0.66 0.73 0.71 0.73 0.77 0.76 0.77 0.77 0.73 0.63 0.73 0.81 0.72 0.73 0.76 0.67 0.54 0.45 0.64 0.93 1.23 1.36 1.35 1.33 1.21
1.57 1.34 1.17 0.99 0.87 0.79 0.71 0.82 1.05 0.87 0.88 0.96 1.03 1.03 1.25 1.44 1.41 0.92 0.93 1.16 1.22 1.29 1.27 1.27 1.28 1.09 0.94 0.88 1.28 1.48 0.88 0.85 0.88 0.79 0.67 0.69 0.94 1.20 1.47 1.42 1.33 1.34 1.23
1.84 1.63 1.40 1.18 0.99 0.90 1.02 0.93 1.06 1.21 1.30 1.32 1.33 1.32 1.48 1.40 1.19 1.02 1.14 1.39 1.62 1.69 1.58 1.75 1.82 1.49 1.54 1.76 1.77 1.59 1.12 1.23 1.22 1.13 0.98 1.11 1.33 1.63 2.01 1.81 1.50 1.35 1.28
1.97 1.86 1.80 1.50 1.33 1.40 1.33 1.08 1.01 1.05 1.17 1.35 1.59 1.54 1.60 1.79 1.69 1.62 1.68 1.70 1.83 2.03 2.28 2.21 2.37 2.22 2.13 2.00 1.98 1.86 1.62 1.63 1.59 1.69 1.64 1.49 1.56 1.82 2.30 2.28 1.85 1.55 1.38
2.06 2.05 2.06 1.95 1.78 1.85 1.67 1.48 1.26 1.37 1.38 1.45 1.59 1.74 1.66 1.89 2.05 2.04 1.99 1.96 1.85 1.93 2.09 2.29 2.32 2.67 2.78 2.41 2.02 1.89 1.88 1.95 1.86 1.85 1.77 1.68 1.61 1.74 2.12 2.36 2.23 1.99 1.69
2.40 2.41 2.25 2.20 2.21 2.19 2.10 2.07 1.97 1.73 1.77 1.70 1.68 1.68 1.71 1.94 2.18 2.29 2.14 2.10 1.96 1.91 2.07 2.25 2.41 2.91 2.93 2.73 2.30 2.07 1.98 1.94 1.78 1.71 1.80 1.98 1.79 1.68 1.81 2.10 2.31 2.29 2.14
2.83 2.84 2.83 2.79 2.93 2.87 2.70 2.55 2.34 2.18 2.02 1.99 2.05 2.05 1.94 1.97 2.17 2.19 2.02 1.91 1.95 2.08 2.25 2.28 2.41 2.73 2.49 2.47 2.27 2.11 1.90 1.71 1.54 1.50 1.67 1.85 1.73 1.67 1.79 1.93 2.13 2.23 2.33
3.09 3.21 3.35 3.37 3.38 3.25 3.22 3.13 2.87 2.65 2.47 2.31 2.26 2.28 2.12 2.04 2.06 2.22 2.02 1.86 2.17 2.22 2.30 2.53 2.67 2.68 2.63 2.62 2.39 2.07 1.83 1.70 1.38 1.27 1.30 1.41 1.61 1.42 1.67 1.88 1.93 2.00 2.24
3.57 3.80 3.95 3.95 3.81 3.56 3.57 3.53 3.38 3.20 2.87 2.51 2.37 2.27 2.10 2.03 2.12 2.39 2.36 2.43 2.50 2.54 2.56 2.42 2.74 2.77 2.66 2.67 2.32 2.05 1.67 1.48 1.29 1.14 1.08 1.05 1.20 1.29 1.37 1.49 1.63 1.73 2.10
4.10 4.48 4.30 4.17 4.33 4.20 4.03 3.86 3.58 3.13 2.73 2.59 2.52 2.32 2.17 2.16 2.23 2.58 2.44 2.44 2.53 2.67 2.71 2.64 2.68 2.69 2.43 2.39 2.17 1.93 1.53 1.21 1.12 1.05 0.91 0.88 0.93 0.91 1.07 1.32 1.55 1.38 1.73
4.15 4.54 4.69 4.67 4.54 4.31 3.88 3.54 3.29 3.06 2.90 2.65 2.47 2.38 2.24 2.12 2.23 2.56 2.45 2.62 2.58 2.59 2.59 2.62 2.65 2.51 2.12 2.31 2.41 1.95 1.43 1.10 1.09 0.86 0.78 0.81 0.84 0.84 1.04 1.34 1.54 1.53 1.42
3.81 4.27 4.55 4.69 4.57 4.17 3.74 3.50 3.34 3.27 2.91 2.60 2.56 2.59 2.41 2.41 2.40 2.42 2.53 2.50 2.55 2.66 2.57 2.52 2.57 2.38 2.00 2.14 2.35 2.42 1.81 1.41 1.07 0.74 0.80 0.91 1.00 1.10 1.13 1.24 1.41 1.56 1.53
3.35 3.66 3.78 3.92 3.88 3.72 3.71 3.68 3.59 3.52 3.07 2.92 2.89 2.86 2.69 2.64 2.58 2.54 2.52 2.42 2.36 2.23 2.26 2.33 2.33 2.31 2.15 2.05 2.24 2.52 2.13 1.66 1.36 0.94 0.85 0.91 1.12 1.34 1.34 1.38 1.37 1.53 1.66
2.89 3.24 3.47 3.52 3.47 3.37 3.44 3.45 3.31 3.09 2.91 3.00 3.23 3.19 2.91 2.66 2.45 2.21 2.08 2.14 2.12 2.02 2.03 1.82 1.89 2.01 1.98 1.82 1.96 2.02 2.04 2.08 2.01 1.41 1.01 0.91 1.08 1.24 1.36 1.28 1.27 1.43 1.65
2.50 2.79 3.03 3.30 3.38 3.31 3.34 3.26 3.24 3.11 3.10 3.11 3.05 2.99 2.74 2.50 2.15 1.84 1.74 1.82 1.83 1.76 1.69 1.62 1.75 1.67 1.61 1.57 1.73 1.88 1.96 2.04 2.01 1.89 1.51 1.41 1.38 1.21 1.20 1.23 1.36 1.47 1.52
2.14 2.25 2.39 2.60 2.87 3.03 3.05 3.03 3.04 2.96 2.94 2.85 2.71 2.53 2.31 2.10 1.83 1.56 1.43 1.55 1.65 1.68 1.64 1.61 1.68 1.57 1.56 1.66 1.64 1.69 1.87 1.86 1.87 2.02 1.76 1.65 1.59 1.30 1.22 1.31 1.36 1.52 1.57

GEFSSE_prec_meanprecacc_222.txt.gz
Total_Precipitation_Accumulation
0.67 0.75 0.96 0.73 0.52 0.55 0.62 0.63 0.60 0.55 0.50 0.52 0.54 0.52 0.51 0.55 0.54 0.52 0.52 0.58 0.63 0.68 0.68 0.71 0.67 0.68 0.69 0.64 0.65 0.56 0.51 0.52 0.59 0.66 0.71 0.70 0.78 1.02 1.31 1.39 1.43 0.91 0.89
0.46 0.57 0.81 0.67 0.46 0.46 0.55 0.59 0.58 0.56 0.50 0.52 0.57 0.58 0.64 0.66 0.58 0.52 0.56 0.57 0.60 0.64 0.60 0.54 0.52 0.53 0.56 0.52 0.47 0.42 0.49 0.63 0.75 0.93 0.91 0.77 0.81 1.02 1.24 1.27 1.40 0.83 0.77
0.40 0.47 0.54 0.54 0.44 0.43 0.53 0.58 0.61 0.66 0.64 0.62 0.61 0.63 0.67 0.62 0.56 0.54 0.55 0.53 0.55 0.57 0.50 0.46 0.44 0.40 0.42 0.42 0.43 0.46 0.60 0.81 1.06 1.22 1.34 0.82 0.59 0.94 1.04 1.03 0.93 0.76 0.74
0.38 0.36 0.33 0.41 0.42 0.44 0.53 0.60 0.76 0.76 0.71 0.65 0.66 0.63 0.57 0.55 0.52 0.49 0.51 0.52 0.55 0.51 0.46 0.40 0.37 0.33 0.34 0.34 0.41 0.55 0.72 0.91 1.12 1.51 1.45 0.73 0.44 0.63 0.79 0.79 0.72 0.71 0.66
0.32 0.33 0.36 0.41 0.40 0.49 0.58 0.65 0.71 0.62 0.57 0.58 0.63 0.60 0.58 0.56 0.54 0.51 0.50 0.49 0.50 0.47 0.42 0.35 0.33 0.32 0.33 0.36 0.46 0.61 0.75 0.89 1.23 1.38 0.93 0.81 0.76 0.71 0.66 0.70 0.74 0.70 0.57
0.27 0.30 0.35 0.40 0.44 0.49 0.49 0.53 0.59 0.59 0.53 0.55 0.56 0.58 0.59 0.57 0.58 0.52 0.45 0.43 0.43 0.43 0.40 0.37 0.34 0.33 0.34 0.42 0.50 0.62 0.79 1.02 1.15 0.77 0.64 0.61 0.64 0.73 0.65 0.80 0.87 0.76 0.62
0.33 0.37 0.37 0.46 0.50 0.50 0.46 0.49 0.50 0.52 0.53 0.56 0.55 0.53 0.53 0.51 0.52 0.49 0.41 0.37 0.37 0.38 0.36 0.36 0.35 0.38 0.42 0.47 0.54 0.64 0.83 1.14 0.90 0.58 0.62 0.68 0.63 0.63 0.71 0.93 1.09 0.96 0.79
0.52 0.52 0.51 0.57 0.55 0.54 0.51 0.51 0.48 0.47 0.48 0.45 0.44 0.46 0.44 0.41 0.46 0.49 0.47 0.38 0.35 0.36 0.33 0.33 0.34 0.40 0.47 0.53 0.60 0.66 0.81 0.87 0.54 0.48 0.47 0.54 0.48 0.52 0.74 0.96 1.11 1.10 1.00
0.78 0.65 0.61 0.68 0.67 0.62 0.68 0.62 0.55 0.49 0.48 0.47 0.45 0.46 0.44 0.40 0.40 0.43 0.50 0.46 0.39 0.42 0.40 0.38 0.37 0.42 0.48 0.56 0.60 0.66 0.77 0.81 0.61 0.58 0.49 0.49 0.49 0.68 1.00 1.14 1.14 1.13 1.11
1.24 1.00 0.87 0.78 0.71 0.68 0.66 0.65 0.62 0.56 0.50 0.50 0.49 0.45 0.48 0.47 0.45 0.49 0.46 0.50 0.49 0.53 0.56 0.52 0.49 0.49 0.51 0.54 0.61 0.68 0.73 0.69 0.68 0.65 0.57 0.45 0.56 0.84 1.16 1.29 1.31 1.25 1.16
1.52 1.34 1.09 0.89 0.84 0.82 0.70 0.65 0.73 0.69 0.63 0.64 0.65 0.61 0.74 0.87 0.75 0.80 0.67 0.74 0.72 0.74 0.78 0.77 0.79 0.78 0.74 0.66 0.77 0.86 0.77 0.79 0.84 0.73 0.58 0.48 0.65 0.94 1.23 1.36 1.36 1.34 1.22
1.76 1.50 1.29 1.10 0.94 0.84 0.73 0.84 1.06 0.88 0.89 0.98 1.06 1.06 1.27 1.47 1.44 0.94 0.95 1.19 1.24 1.30 1.28 1.28 1.29 1.11 0.96 0.91 1.33 1.53 0.96 0.91 0.96 0.86 0.71 0.72 0.97 1.22 1.48 1.43 1.34 1.35 1.24
2.05 1.81 1.57 1.31 1.08 0.97 1.05 0.94 1.08 1.23 1.32 1.34 1.35 1.35 1.51 1.42 1.22 1.06 1.17 1.42 1.65 1.70 1.60 1.77 1.83 1.50 1.56 1.80 1.82 1.64 1.18 1.26 1.27 1.19 1.04 1.13 1.35 1.66 2.03 1.83 1.51 1.36 1.30
2.14 2.04 2.00 1.62 1.43 1.52 1.38 1.10 1.02 1.07 1.19 1.37 1.60 1.57 1.63 1.82 1.72 1.65 1.72 1.76 1.86 2.05 2.30 2.22 2.39 2.24 2.17 2.03 2.02 1.90 1.67 1.67 1.64 1.75 1.68 1.51 1.58 1.85 2.33 2.30 1.87 1.57 1.40
2.13 2.17 2.19 2.03 1.83 1.89 1.70 1.50 1.28 1.39 1.41 1.47 1.60 1.75 1.69 1.91 2.07 2.07 2.02 2.00 1.88 1.96 2.12 2.31 2.36 2.69 2.81 2.44 2.06 1.93 1.91 1.98 1.91 1.88 1.80 1.69 1.62 1.76 2.14 2.38 2.24 2.00 1.71
2.42 2.45 2.30 2.24 2.24 2.21 2.12 2.09 1.99 1.75 1.80 1.73 1.69 1.69 1.73 1.95 2.19 2.31 2.16 2.13 1.99 1.95 2.11 2.29 2.45 2.94 2.95 2.76 2.34 2.10 2.02 1.97 1.81 1.73 1.81 1.99 1.80 1.68 1.82 2.11 2.33 2.30 2.15
2.84 2.84 2.85 2.81 2.94 2.88 2.72 2.57 2.37 2.20 2.06 2.02 2.07 2.07 1.96 1.98 2.18 2.21 2.04 1.94 1.99 2.12 2.30 2.32 2.45 2.76 2.52 2.52 2.31 2.13 1.93 1.74 1.57 1.52 1.70 1.87 1.75 1.69 1.81 1.96 2.15 2.25 2.36
3.10 3.22 3.39 3.40 3.39 3.26 3.24 3.15 2.90 2.67 2.51 2.35 2.29 2.31 2.14 2.05 2.07 2.23 2.04 1.89 2.20 2.27 2.35 2.57 2.71 2.72 2.67 2.68 2.44 2.09 1.85 1.73 1.40 1.29 1.32 1.45 1.65 1.45 1.70 1.92 1.98 2.05 2.29
3.58 3.81 3.96 3.96 3.82 3.57 3.59 3.55 3.39 3.22 2.90 2.55 2.40 2.30 2.14 2.06 2.13 2.39 2.37 2.46 2.52 2.57 2.60 2.47 2.78 2.81 2.70 2.71 2.36 2.08 1.71 1.52 1.33 1.18 1.13 1.11 1.27 1.37 1.45 1.57 1.69 1.79 2.17
4.11 4.50 4.31 4.18 4.35 4.23 4.05 3.88 3.59 3.14 2.74 2.61 2.54 2.35 2.20 2.18 2.25 2.60 2.46 2.46 2.55 2.70 2.74 2.68 2.72 2.72 2.46 2.43 2.20 1.97 1.58 1.26 1.18 1.12 0.98 0.97 1.05 1.05 1.29 1.56 1.71 1.50 1.82
4.16 4.55 4.70 4.68 4.55 4.33 3.91 3.56 3.30 3.07 2.91 2.66 2.49 2.40 2.27 2.14 2.24 2.58 2.48 2.65 2.60 2.61 2.62 2.64 2.68 2.54 2.17 2.36 2.45 1.99 1.47 1.16 1.17 0.97 0.88 0.92 0.98 1.01 1.27 1.55 1.71 1.67 1.51
3.82 4.28 4.56 4.70 4.58 4.18 3.75 3.51 3.35 3.29 2.92 2.62 2.58 2.60 2.43 2.44 2.44 2.45 2.57 2.54 2.57 2.68 2.59 2.54 2.60 2.43 2.05 2.19 2.41 2.47 1.86 1.49 1.16 0.83 0.92 1.03 1.12 1.24 1.30 1.40 1.57 1.73 1.70
3.35 3.66 3.78 3.93 3.89 3.72 3.72 3.70 3.61 3.54 3.08 2.93 2.91 2.88 2.72 2.68 2.63 2.60 2.57 2.46 2.40 2.27 2.30 2.36 2.36 2.35 2.22 2.11 2.31 2.58 2.18 1.71 1.41 1.03 1.00 1.07 1.24 1.44 1.45 1.50 1.53 1.71 1.84
2.89 3.24 3.47 3.53 3.48 3.38 3.46 3.47 3.33 3.11 2.92 3.01 3.26 3.23 2.96 2.71 2.50 2.27 2.16 2.20 2.18 2.06 2.06 1.85 1.93 2.07 2.05 1.88 2.03 2.09 2.11 2.14 2.05 1.48 1.13 1.03 1.19 1.34 1.46 1.37 1.38 1.58 1.87
2.50 2.79 3.04 3.31 3.39 3.32 3.35 3.27 3.25 3.12 3.11 3.14 3.08 3.03 2.78 2.54 2.20 1.89 1.81 1.88 1.87 1.79 1.72 1.67 1.80 1.72 1.66 1.64 1.79 1.97 2.04 2.11 2.08 1.95 1.56 1.47 1.48 1.39 1.33 1.34 1.48 1.61 1.72
2.15 2.26 2.40 2.61 2.88 3.03 3.06 3.03 3.05 2.98 2.96 2.89 2.75 2.58 2.36 2.16 1.88 1.62 1.49 1.60 1.70 1.73 1.68 1.65 1.73 1.63 1.62 1.72 1.70 1.76 1.96 1.97 1.97 2.10 1.81 1.68 1.64 1.43 1.36 1.42 1.48 1.65 1.70

GEFSSE_prec_meanprecacc_228.txt.gz
Total_Precipitation_Accumulation
0.79 0.95 1.18 0.87 0.60 0.63 0.70 0.70 0.67 0.61 0.58 0.60 0.64 0.61 0.59 0.65 0.63 0.61 0.61 0.67 0.75 0.84 0.82 0.80 0.74 0.73 0.74 0.69 0.71 0.61 0.56 0.56 0.62 0.68 0.74 0.73 0.80 1.05 1.35 1.43 1.47 0.95 0.93
0.56 0.73 0.96 0.77 0.54 0.53 0.60 0.64 0.63 0.61 0.57 0.59 0.64 0.65 0.71 0.73 0.66 0.61 0.68 0.70 0.72 0.76 0.68 0.60 0.58 0.57 0.60 0.56 0.51 0.45 0.53 0.66 0.78 0.96 0.94 0.80 0.83 1.06 1.29 1.31 1.44 0.87 0.80
0.48 0.54 0.61 0.62 0.53 0.50 0.58 0.63 0.66 0.70 0.69 0.67 0.67 0.69 0.72 0.70 0.66 0.67 0.67 0.64 0.64 0.65 0.57 0.52 0.49 0.44 0.45 0.45 0.46 0.50 0.64 0.85 1.09 1.24 1.36 0.83 0.62 0.99 1.09 1.08 0.98 0.80 0.78
0.47 0.42 0.38 0.46 0.48 0.49 0.59 0.66 0.81 0.80 0.75 0.69 0.70 0.67 0.62 0.61 0.60 0.58 0.58 0.58 0.61 0.56 0.50 0.44 0.41 0.37 0.37 0.37 0.44 0.59 0.77 0.94 1.15 1.52 1.45 0.73 0.45 0.67 0.84 0.87 0.79 0.76 0.70
0.40 0.39 0.43 0.47 0.46 0.54 0.62 0.69 0.76 0.68 0.62 0.62 0.66 0.64 0.62 0.60 0.59 0.58 0.56 0.54 0.54 0.49 0.43 0.37 0.37 0.36 0.35 0.39 0.49 0.65 0.79 0.91 1.25 1.39 0.93 0.81 0.77 0.76 0.72 0.79 0.82 0.74 0.60
0.33 0.37 0.42 0.45 0.49 0.53 0.54 0.58 0.64 0.63 0.57 0.58 0.59 0.61 0.62 0.60 0.61 0.56 0.49 0.47 0.45 0.45 0.41 0.39 0.37 0.37 0.38 0.44 0.52 0.64 0.81 1.04 1.16 0.77 0.64 0.62 0.65 0.77 0.69 0.86 0.94 0.79 0.64
0.36 0.41 0.42 0.51 0.54 0.53 0.49 0.53 0.54 0.55 0.56 0.59 0.57 0.55 0.55 0.53 0.55 0.51 0.44 0.40 0.41 0.40 0.37 0.38 0.38 0.42 0.46 0.51 0.57 0.67 0.86 1.17 0.90 0.58 0.63 0.68 0.65 0.66 0.75 0.98 1.12 0.98 0.81
0.55 0.56 0.54 0.61 0.59 0.58 0.55 0.55 0.51 0.50 0.51 0.47 0.46 0.48 0.46 0.43 0.47 0.51 0.48 0.40 0.38 0.39 0.36 0.35 0.37 0.45 0.53 0.58 0.64 0.71 0.86 0.91 0.55 0.48 0.47 0.54 0.49 0.54 0.76 0.98 1.13 1.12 1.02
0.81 0.68 0.65 0.72 0.71 0.67 0.74 0.66 0.58 0.52 0.50 0.49 0.47 0.48 0.47 0.43 0.42 0.44 0.52 0.48 0.41 0.45 0.43 0.42 0.41 0.48 0.54 0.61 0.64 0.71 0.83 0.86 0.63 0.59 0.49 0.49 0.50 0.69 1.02 1.15 1.15 1.15 1.12
1.27 1.04 0.90 0.83 0.74 0.70 0.71 0.71 0.66 0.59 0.53 0.53 0.52 0.47 0.50 0.49 0.46 0.50 0.48 0.52 0.51 0.55 0.60 0.56 0.53 0.55 0.57 0.59 0.66 0.75 0.79 0.73 0.70 0.66 0.57 0.46 0.57 0.85 1.17 1.30 1.32 1.26 1.17
1.56 1.38 1.13 0.93 0.86 0.85 0.73 0.68 0.76 0.73 0.67 0.67 0.67 0.63 0.75 0.88 0.76 0.80 0.69 0.77 0.76 0.78 0.81 0.81 0.83 0.84 0.81 0.72 0.85 0.94 0.83 0.83 0.87 0.76 0.60 0.50 0.67 0.96 1.25 1.37 1.37 1.35 1.24
1.81 1.53 1.33 1.13 0.96 0.86 0.75 0.85 1.08 0.91 0.90 0.99 1.06 1.06 1.28 1.47 1.44 0.95 0.96 1.22 1.28 1.34 1.32 1.33 1.34 1.17 1.03 0.99 1.41 1.60 1.00 0.94 0.98 0.89 0.76 0.75 0.99 1.25 1.51 1.45 1.35 1.37 1.27
2.11 1.84 1.59 1.34 1.10 0.99 1.06 0.95 1.09 1.25 1.33 1.35 1.35 1.35 1.52 1.43 1.23 1.07 1.18 1.45 1.68 1.74 1.63 1.80 1.87 1.55 1.61 1.88 1.87 1.68 1.21 1.30 1.30 1.22 1.08 1.17 1.40 1.69 2.06 1.85 1.53 1.39 1.33
2.23 2.08 2.02 1.65 1.45 1.54 1.40 1.12 1.04 1.08 1.20 1.38 1.61 1.57 1.63 1.82 1.73 1.66 1.73 1.78 1.89 2.07 2.32 2.24 2.41 2.27 2.22 2.11 2.06 1.93 1.70 1.72 1.68 1.78 1.71 1.54 1.62 1.89 2.37 2.34 1.89 1.59 1.41
2.22 2.22 2.22 2.05 1.86 1.92 1.73 1.53 1.31 1.42 1.44 1.49 1.62 1.77 1.71 1.93 2.10 2.09 2.06 2.03 1.91 1.98 2.14 2.33 2.37 2.71 2.83 2.47 2.09 1.95 1.94 2.01 1.94 1.90 1.82 1.72 1.65 1.79 2.19 2.44 2.30 2.04 1.73
2.48 2.51 2.34 2.27 2.26 2.25 2.16 2.12 2.02 1.78 1.84 1.76 1.71 1.71 1.76 1.98 2.23 2.35 2.22 2.18 2.04 2.01 2.15 2.31 2.47 2.95 2.97 2.79 2.37 2.12 2.04 1.99 1.83 1.74 1.82 2.01 1.85 1.73 1.87 2.17 2.40 2.37 2.21
2.87 2.88 2.88 2.85 2.98 2.90 2.74 2.61 2.40 2.23 2.09 2.05 2.09 2.10 1.99 2.02 2.22 2.25 2.08 1.98 2.04 2.19 2.36 2.37 2.48 2.77 2.55 2.55 2.34 2.15 1.95 1.75 1.58 1.53 1.71 1.88 1.78 1.75 1.87 2.02 2.23 2.34 2.45
3.12 3.24 3.41 3.43 3.42 3.27 3.25 3.18 2.92 2.69 2.53 2.37 2.32 2.34 2.17 2.09 2.11 2.28 2.10 1.95 2.26 2.31 2.40 2.63 2.75 2.76 2.71 2.72 2.47 2.12 1.88 1.75 1.41 1.31 1.34 1.49 1.69 1.49 1.75 1.99 2.06 2.14 2.40
3.59 3.82 3.97 3.98 3.84 3.59 3.61 3.58 3.42 3.24 2.91 2.56 2.41 2.33 2.17 2.11 2.19 2.44 2.42 2.51 2.56 2.60 2.63 2.50 2.81 2.85 2.73 2.74 2.39 2.13 1.76 1.56 1.36 1.21 1.18 1.18 1.34 1.45 1.54 1.63 1.78 1.89 2.28
4.12 4.50 4.32 4.20 4.37 4.24 4.07 3.90 3.61 3.16 2.76 2.62 2.56 2.38 2.23 2.23 2.31 2.66 2.52 2.52 2.58 2.72 2.76 2.71 2.76 2.76 2.50 2.48 2.24 2.01 1.63 1.29 1.23 1.16 1.03 1.04 1.13 1.16 1.38 1.64 1.79 1.59 1.92
4.17 4.56 4.70 4.69 4.56 4.34 3.92 3.57 3.31 3.09 2.93 2.69 2.51 2.43 2.29 2.18 2.29 2.64 2.55 2.72 2.66 2.65 2.64 2.68 2.73 2.59 2.22 2.42 2.51 2.03 1.51 1.18 1.20 1.01 0.92 0.98 1.05 1.09 1.33 1.62 1.81 1.77 1.60
3.83 4.28 4.57 4.71 4.59 4.19 3.76 3.52 3.37 3.31 2.94 2.64 2.61 2.64 2.46 2.47 2.49 2.50 2.63 2.61 2.64 2.73 2.64 2.59 2.65 2.48 2.10 2.25 2.47 2.52 1.90 1.52 1.19 0.87 0.96 1.07 1.18 1.29 1.34 1.47 1.65 1.80 1.77
3.36 3.67 3.79 3.94 3.90 3.73 3.73 3.71 3.62 3.56 3.10 2.96 2.94 2.91 2.74 2.72 2.70 2.68 2.65 2.54 2.49 2.34 2.36 2.41 2.41 2.41 2.26 2.16 2.37 2.63 2.21 1.74 1.45 1.06 1.02 1.10 1.27 1.47 1.48 1.56 1.59 1.77 1.91
2.91 3.25 3.48 3.54 3.49 3.39 3.47 3.48 3.34 3.12 2.94 3.04 3.30 3.26 2.99 2.75 2.56 2.36 2.25 2.30 2.27 2.13 2.12 1.90 1.99 2.11 2.08 1.92 2.08 2.14 2.16 2.17 2.08 1.51 1.16 1.05 1.21 1.37 1.50 1.42 1.43 1.65 1.95
2.51 2.80 3.05 3.31 3.40 3.33 3.36 3.28 3.27 3.14 3.13 3.17 3.12 3.07 2.82 2.58 2.26 1.96 1.90 1.97 1.96 1.87 1.80 1.74 1.86 1.77 1.70 1.68 1.85 2.02 2.09 2.16 2.11 1.98 1.60 1.51 1.51 1.41 1.37 1.39 1.54 1.67 1.80
2.15 2.27 2.41 2.63 2.90 3.05 3.09 3.05 3.07 3.00 2.99 2.91 2.79 2.62 2.39 2.20 1.93 1.68 1.55 1.66 1.76 1.78 1.75 1.73 1.80 1.70 1.67 1.79 1.76 1.82 2.00 2.03 2.04 2.16 1.85 1.71 1.67 1.46 1.41 1.47 1.52 1.70 1.75

GEFSSE_prec_meanprecacc_234.txt.gz
Total_Precipitation_Accumulation
0.93 1.14 1.39 1.06 0.74 0.74 0.82 0.82 0.80 0.69 0.66 0.71 0.76 0.69 0.68 0.72 0.69 0.70 0.69 0.76 0.88 0.97 0.92 0.89 0.82 0.80 0.79 0.73 0.74 0.64 0.58 0.58 0.64 0.70 0.75 0.74 0.82 1.07 1.37 1.45 1.51 1.00 0.98
0.66 0.85 1.16 0.96 0.67 0.65 0.71 0.73 0.71 0.69 0.66 0.69 0.75 0.74 0.80 0.82 0.74 0.70 0.78 0.83 0.86 0.88 0.77 0.67 0.64 0.63 0.63 0.59 0.53 0.48 0.55 0.68 0.79 0.97 0.96 0.81 0.85 1.08 1.30 1.33 1.47 0.92 0.86
0.54 0.61 0.70 0.77 0.65 0.61 0.68 0.72 0.73 0.78 0.77 0.76 0.75 0.78 0.82 0.82 0.78 0.80 0.80 0.75 0.74 0.75 0.65 0.59 0.55 0.49 0.48 0.48 0.48 0.51 0.66 0.86 1.11 1.26 1.37 0.86 0.64 1.00 1.11 1.10 1.01 0.85 0.83
0.51 0.47 0.43 0.57 0.59 0.59 0.67 0.73 0.87 0.87 0.81 0.74 0.76 0.75 0.76 0.85 0.83 0.75 0.67 0.65 0.69 0.63 0.57 0.51 0.47 0.41 0.40 0.39 0.46 0.60 0.79 0.95 1.16 1.53 1.47 0.75 0.46 0.69 0.86 0.89 0.82 0.79 0.73
0.44 0.45 0.50 0.57 0.56 0.62 0.68 0.75 0.82 0.74 0.67 0.68 0.71 0.70 0.75 0.78 0.74 0.68 0.63 0.60 0.63 0.57 0.50 0.44 0.42 0.40 0.40 0.42 0.51 0.67 0.82 0.93 1.26 1.40 0.94 0.82 0.79 0.79 0.75 0.83 0.86 0.77 0.63
0.37 0.42 0.46 0.52 0.56 0.59 0.59 0.62 0.69 0.69 0.61 0.63 0.64 0.67 0.69 0.69 0.71 0.64 0.56 0.54 0.55 0.53 0.48 0.46 0.42 0.41 0.43 0.48 0.55 0.66 0.83 1.06 1.18 0.79 0.66 0.63 0.67 0.80 0.76 0.93 1.02 0.85 0.69
0.39 0.44 0.46 0.57 0.62 0.59 0.55 0.57 0.57 0.60 0.61 0.63 0.62 0.60 0.60 0.58 0.61 0.57 0.50 0.47 0.48 0.45 0.43 0.45 0.43 0.46 0.49 0.53 0.59 0.68 0.87 1.18 0.93 0.61 0.64 0.70 0.67 0.70 0.83 1.06 1.24 1.07 0.85
0.57 0.59 0.58 0.66 0.66 0.63 0.59 0.60 0.56 0.55 0.56 0.52 0.51 0.51 0.50 0.46 0.50 0.55 0.55 0.45 0.42 0.42 0.40 0.40 0.41 0.48 0.55 0.60 0.67 0.72 0.88 0.93 0.56 0.50 0.48 0.55 0.52 0.58 0.82 1.06 1.23 1.17 1.05
0.84 0.73 0.69 0.77 0.78 0.72 0.79 0.71 0.63 0.56 0.54 0.52 0.50 0.52 0.50 0.45 0.43 0.46 0.55 0.51 0.43 0.47 0.46 0.45 0.46 0.52 0.57 0.63 0.66 0.73 0.86 0.87 0.64 0.61 0.50 0.51 0.53 0.72 1.05 1.21 1.20 1.17 1.14
1.30 1.08 0.94 0.88 0.81 0.77 0.76 0.75 0.70 0.63 0.57 0.57 0.55 0.50 0.53 0.52 0.48 0.52 0.51 0.54 0.53 0.58 0.63 0.60 0.61 0.62 0.62 0.62 0.68 0.77 0.82 0.76 0.72 0.68 0.58 0.47 0.59 0.88 1.21 1.34 1.35 1.28 1.19
1.58 1.42 1.17 0.98 0.91 0.90 0.78 0.72 0.80 0.77 0.72 0.71 0.70 0.66 0.78 0.89 0.77 0.82 0.71 0.81 0.80 0.82 0.86 0.91 0.96 0.92 0.86 0.76 0.88 0.97 0.86 0.86 0.89 0.80 0.62 0.51 0.70 0.98 1.27 1.40 1.40 1.38 1.28
1.83 1.56 1.36 1.18 1.00 0.89 0.78 0.89 1.12 0.94 0.94 1.02 1.08 1.09 1.29 1.49 1.46 0.96 0.98 1.25 1.32 1.39 1.37 1.42 1.49 1.26 1.08 1.03 1.46 1.63 1.03 0.97 1.01 0.93 0.79 0.79 1.03 1.27 1.53 1.47 1.38 1.41 1.30
2.13 1.86 1.63 1.37 1.13 1.01 1.07 0.97 1.11 1.28 1.36 1.37 1.37 1.38 1.54 1.44 1.24 1.09 1.21 1.47 1.70 1.76 1.67 1.86 1.95 1.63 1.67 1.92 1.92 1.72 1.25 1.33 1.34 1.26 1.11 1.20 1.43 1.72 2.09 1.88 1.56 1.41 1.35
2.26 2.12 2.07 1.67 1.47 1.56 1.41 1.14 1.05 1.09 1.22 1.40 1.62 1.58 1.66 1.86 1.76 1.69 1.76 1.80 1.91 2.09 2.36 2.28 2.46 2.33 2.27 2.16 2.12 1.98 1.73 1.75 1.71 1.82 1.73 1.55 1.64 1.92 2.42 2.40 1.94 1.63 1.44
2.26 2.27 2.26 2.08 1.89 1.95 1.75 1.55 1.32 1.43 1.45 1.51 1.64 1.79 1.73 1.97 2.16 2.14 2.10 2.06 1.94 2.01 2.16 2.36 2.41 2.77 2.91 2.53 2.14 2.00 1.98 2.04 1.96 1.92 1.83 1.74 1.67 1.83 2.24 2.50 2.37 2.11 1.80
2.54 2.58 2.39 2.30 2.30 2.28 2.20 2.16 2.05 1.80 1.86 1.78 1.73 1.73 1.78 2.02 2.29 2.41 2.27 2.24 2.09 2.05 2.19 2.36 2.52 3.02 3.04 2.84 2.41 2.16 2.07 2.02 1.85 1.76 1.84 2.04 1.88 1.78 1.92 2.24 2.47 2.44 2.27
2.92 2.94 2.94 2.89 3.01 2.93 2.77 2.64 2.42 2.24 2.11 2.07 2.12 2.13 2.03 2.06 2.29 2.32 2.14 2.05 2.11 2.26 2.43 2.44 2.54 2.84 2.61 2.60 2.38 2.18 1.98 1.79 1.60 1.55 1.73 1.93 1.84 1.79 1.92 2.08 2.30 2.42 2.53
3.15 3.29 3.45 3.46 3.45 3.29 3.28 3.22 2.95 2.72 2.55 2.40 2.34 2.38 2.22 2.15 2.19 2.36 2.17 2.02 2.33 2.37 2.47 2.73 2.84 2.85 2.77 2.79 2.53 2.17 1.92 1.79 1.43 1.33 1.36 1.53 1.74 1.54 1.81 2.05 2.11 2.20 2.48
3.61 3.86 4.00 4.00 3.86 3.60 3.63 3.61 3.45 3.28 2.95 2.59 2.44 2.36 2.21 2.16 2.25 2.50 2.48 2.58 2.62 2.66 2.70 2.57 2.89 2.93 2.81 2.83 2.47 2.19 1.80 1.58 1.40 1.24 1.21 1.21 1.37 1.49 1.59 1.67 1.82 1.94 2.34
4.13 4.52 4.34 4.21 4.39 4.26 4.09 3.94 3.65 3.21 2.79 2.66 2.61 2.42 2.26 2.28 2.36 2.71 2.57 2.58 2.64 2.79 2.85 2.81 2.86 2.85 2.60 2.57 2.29 2.07 1.70 1.31 1.26 1.19 1.06 1.07 1.16 1.18 1.41 1.69 1.86 1.65 1.98
4.17 4.56 4.71 4.70 4.58 4.36 3.95 3.61 3.36 3.14 2.97 2.72 2.55 2.47 2.35 2.24 2.36 2.72 2.60 2.78 2.74 2.73 2.74 2.77 2.82 2.69 2.31 2.49 2.57 2.09 1.56 1.21 1.23 1.03 0.94 1.00 1.07 1.10 1.35 1.65 1.85 1.83 1.67
3.83 4.29 4.57 4.72 4.60 4.20 3.78 3.55 3.40 3.35 2.98 2.68 2.65 2.69 2.52 2.54 2.56 2.58 2.71 2.69 2.73 2.83 2.75 2.70 2.74 2.56 2.17 2.33 2.56 2.61 1.98 1.59 1.24 0.89 0.98 1.09 1.19 1.30 1.35 1.49 1.67 1.84 1.84
3.36 3.67 3.79 3.94 3.90 3.73 3.74 3.74 3.65 3.60 3.14 3.01 3.00 2.97 2.79 2.77 2.76 2.74 2.71 2.61 2.58 2.44 2.45 2.50 2.50 2.50 2.35 2.23 2.45 2.73 2.30 1.82 1.51 1.10 1.05 1.12 1.29 1.50 1.51 1.58 1.61 1.80 1.95
2.91 3.26 3.49 3.54 3.49 3.39 3.48 3.50 3.38 3.16 2.98 3.08 3.34 3.29 3.02 2.78 2.60 2.39 2.29 2.35 2.35 2.21 2.20 1.97 2.06 2.20 2.19 2.02 2.19 2.24 2.25 2.25 2.16 1.57 1.19 1.09 1.24 1.40 1.53 1.45 1.46 1.69 1.99
2.51 2.80 3.05 3.32 3.40 3.34 3.38 3.30 3.30 3.18 3.16 3.19 3.13 3.09 2.85 2.62 2.30 1.99 1.95 2.03 2.03 1.95 1.88 1.82 1.95 1.86 1.79 1.78 1.97 2.13 2.19 2.24 2.17 2.03 1.65 1.56 1.55 1.45 1.40 1.42 1.59 1.73 1.87
2.15 2.27 2.41 2.63 2.90 3.07 3.11 3.08 3.11 3.04 3.01 2.93 2.81 2.65 2.43 2.24 1.97 1.73 1.60 1.72 1.82 1.86 1.83 1.80 1.88 1.77 1.75 1.87 1.84 1.89 2.09 2.11 2.11 2.24 1.93 1.77 1.73 1.51 1.46 1.52 1.57 1.74 1.80

GEFSSE_prec_meanprecacc_240.txt.gz
Total_Precipitation_Accumulation
1.08 1.24 1.47 1.16 0.85 0.86 0.94 0.96 0.96 0.83 0.78 0.82 0.84 0.77 0.79 0.84 0.79 0.79 0.78 0.84 0.94 1.02 0.98 0.96 0.88 0.86 0.84 0.77 0.78 0.67 0.62 0.61 0.66 0.71 0.77 0.76 0.84 1.09 1.39 1.49 1.57 1.05 1.03
0.74 0.92 1.23 1.06 0.79 0.75 0.82 0.84 0.84 0.82 0.77 0.79 0.84 0.84 0.90 0.90 0.80 0.78 0.87 0.91 0.93 0.95 0.85 0.74 0.69 0.67 0.67 0.61 0.56 0.50 0.58 0.70 0.81 0.98 0.97 0.82 0.86 1.09 1.34 1.37 1.53 0.97 0.89
0.58 0.65 0.75 0.87 0.76 0.70 0.78 0.82 0.84 0.89 0.86 0.84 0.82 0.85 0.88 0.90 0.87 0.91 0.91 0.84 0.83 0.84 0.73 0.66 0.59 0.53 0.50 0.49 0.49 0.53 0.67 0.88 1.13 1.29 1.43 0.90 0.65 1.02 1.13 1.13 1.04 0.87 0.85
0.53 0.51 0.46 0.64 0.66 0.66 0.75 0.81 0.95 0.96 0.90 0.83 0.83 0.82 0.84 0.95 0.94 0.86 0.78 0.74 0.78 0.72 0.65 0.57 0.50 0.44 0.42 0.40 0.46 0.61 0.80 0.96 1.18 1.59 1.55 0.79 0.49 0.72 0.89 0.92 0.84 0.82 0.76
0.46 0.48 0.53 0.62 0.61 0.68 0.75 0.83 0.91 0.82 0.76 0.78 0.80 0.80 0.88 0.89 0.84 0.78 0.73 0.71 0.72 0.65 0.57 0.48 0.45 0.42 0.41 0.43 0.52 0.69 0.83 0.94 1.28 1.45 0.97 0.86 0.84 0.83 0.78 0.85 0.88 0.79 0.66
0.39 0.44 0.49 0.55 0.59 0.64 0.64 0.67 0.77 0.80 0.74 0.76 0.75 0.78 0.80 0.81 0.84 0.76 0.65 0.63 0.65 0.62 0.55 0.52 0.45 0.43 0.44 0.49 0.56 0.68 0.85 1.08 1.22 0.83 0.68 0.66 0.70 0.83 0.79 0.97 1.05 0.88 0.72
0.42 0.46 0.47 0.59 0.64 0.62 0.59 0.60 0.62 0.68 0.71 0.74 0.73 0.74 0.75 0.74 0.74 0.67 0.58 0.55 0.58 0.54 0.50 0.50 0.47 0.48 0.51 0.55 0.60 0.69 0.89 1.22 0.97 0.65 0.67 0.73 0.69 0.73 0.86 1.11 1.29 1.12 0.91
0.59 0.60 0.60 0.69 0.69 0.66 0.61 0.62 0.59 0.58 0.60 0.58 0.57 0.60 0.62 0.58 0.60 0.64 0.63 0.52 0.50 0.48 0.46 0.46 0.46 0.50 0.56 0.62 0.68 0.73 0.90 0.96 0.59 0.54 0.52 0.58 0.54 0.61 0.86 1.11 1.29 1.27 1.15
0.85 0.74 0.73 0.81 0.81 0.73 0.80 0.73 0.65 0.58 0.56 0.55 0.53 0.55 0.55 0.51 0.51 0.56 0.64 0.58 0.49 0.51 0.52 0.52 0.52 0.54 0.59 0.65 0.68 0.75 0.89 0.91 0.69 0.65 0.54 0.53 0.54 0.76 1.10 1.25 1.27 1.28 1.23
1.32 1.11 0.98 0.93 0.85 0.79 0.78 0.76 0.72 0.65 0.60 0.59 0.56 0.52 0.56 0.56 0.53 0.58 0.58 0.61 0.58 0.62 0.72 0.70 0.66 0.65 0.64 0.64 0.70 0.80 0.84 0.80 0.79 0.73 0.62 0.49 0.63 0.92 1.25 1.40 1.42 1.39 1.27
1.60 1.46 1.23 1.02 0.95 0.93 0.80 0.73 0.83 0.80 0.75 0.74 0.73 0.68 0.82 0.95 0.82 0.87 0.76 0.85 0.84 0.86 0.96 1.00 1.01 0.95 0.89 0.78 0.89 0.99 0.88 0.90 0.97 0.86 0.65 0.53 0.75 1.02 1.31 1.44 1.43 1.43 1.32
1.85 1.60 1.43 1.22 1.03 0.92 0.80 0.92 1.17 0.98 0.99 1.07 1.13 1.13 1.35 1.55 1.52 1.00 1.02 1.27 1.34 1.42 1.45 1.50 1.56 1.33 1.12 1.07 1.48 1.65 1.06 1.00 1.08 1.00 0.83 0.82 1.07 1.29 1.55 1.50 1.41 1.44 1.34
2.16 1.90 1.68 1.43 1.18 1.04 1.10 0.99 1.14 1.31 1.40 1.43 1.42 1.43 1.59 1.49 1.26 1.11 1.24 1.51 1.73 1.80 1.75 1.98 2.02 1.69 1.72 1.97 1.96 1.76 1.28 1.37 1.38 1.32 1.16 1.23 1.45 1.74 2.11 1.90 1.58 1.44 1.37
2.28 2.15 2.11 1.72 1.53 1.60 1.42 1.15 1.07 1.11 1.24 1.43 1.66 1.61 1.71 1.93 1.81 1.71 1.81 1.84 1.94 2.14 2.46 2.41 2.55 2.39 2.32 2.20 2.15 2.01 1.77 1.79 1.76 1.87 1.77 1.57 1.66 1.94 2.43 2.41 1.97 1.65 1.46
2.28 2.29 2.30 2.11 1.93 2.00 1.79 1.58 1.33 1.44 1.46 1.53 1.65 1.80 1.76 2.03 2.22 2.18 2.14 2.10 1.95 2.03 2.22 2.46 2.49 2.84 2.96 2.56 2.17 2.03 2.02 2.09 2.00 1.98 1.88 1.76 1.69 1.85 2.26 2.53 2.40 2.16 1.84
2.57 2.61 2.44 2.34 2.33 2.33 2.25 2.19 2.07 1.81 1.88 1.79 1.74 1.74 1.79 2.06 2.36 2.48 2.33 2.28 2.11 2.08 2.22 2.41 2.57 3.08 3.08 2.89 2.46 2.20 2.11 2.05 1.89 1.81 1.89 2.07 1.91 1.80 1.95 2.28 2.52 2.50 2.33
2.95 2.98 2.98 2.93 3.05 2.97 2.81 2.68 2.45 2.26 2.11 2.08 2.13 2.14 2.04 2.09 2.35 2.39 2.22 2.12 2.16 2.29 2.48 2.49 2.61 2.90 2.67 2.66 2.45 2.22 2.01 1.81 1.65 1.60 1.77 1.98 1.89 1.82 1.96 2.12 2.35 2.49 2.59
3.18 3.34 3.51 3.49 3.49 3.34 3.33 3.26 2.98 2.74 2.56 2.40 2.34 2.38 2.23 2.17 2.22 2.42 2.24 2.08 2.39 2.42 2.53 2.81 2.92 2.92 2.85 2.86 2.60 2.23 1.97 1.83 1.48 1.38 1.41 1.57 1.81 1.59 1.87 2.09 2.15 2.24 2.52
3.63 3.89 4.07 4.04 3.89 3.63 3.67 3.65 3.48 3.31 2.97 2.61 2.46 2.37 2.23 2.19 2.29 2.55 2.54 2.64 2.69 2.74 2.77 2.64 3.00 3.02 2.89 2.92 2.53 2.25 1.85 1.64 1.46 1.29 1.25 1.25 1.44 1.56 1.68 1.75 1.86 1.97 2.40
4.13 4.53 4.37 4.25 4.42 4.29 4.13 3.98 3.71 3.26 2.83 2.69 2.65 2.45 2.30 2.33 2.41 2.78 2.64 2.66 2.72 2.86 2.93 2.90 2.96 2.95 2.69 2.68 2.37 2.16 1.78 1.37 1.31 1.26 1.12 1.14 1.23 1.25 1.49 1.77 1.93 1.71 2.04
4.18 4.57 4.72 4.72 4.61 4.39 3.99 3.66 3.41 3.19 3.01 2.76 2.58 2.51 2.39 2.26 2.40 2.80 2.67 2.89 2.84 2.83 2.84 2.86 2.93 2.79 2.42 2.60 2.67 2.20 1.67 1.30 1.31 1.13 1.07 1.12 1.16 1.17 1.43 1.75 1.96 1.93 1.75
3.83 4.29 4.59 4.73 4.61 4.22 3.81 3.59 3.44 3.38 3.01 2.72 2.68 2.75 2.58 2.57 2.60 2.64 2.80 2.78 2.83 2.93 2.86 2.81 2.88 2.69 2.29 2.46 2.72 2.78 2.15 1.74 1.35 0.97 1.07 1.17 1.26 1.36 1.41 1.56 1.76 1.95 1.92
3.37 3.68 3.80 3.95 3.91 3.76 3.77 3.77 3.68 3.63 3.17 3.05 3.04 3.02 2.83 2.80 2.79 2.78 2.76 2.69 2.68 2.54 2.55 2.59 2.60 2.63 2.50 2.38 2.61 2.92 2.49 2.00 1.67 1.18 1.10 1.16 1.34 1.55 1.57 1.63 1.66 1.86 2.02
2.91 3.26 3.49 3.55 3.50 3.41 3.50 3.54 3.40 3.19 3.01 3.11 3.37 3.33 3.05 2.81 2.63 2.42 2.33 2.43 2.44 2.30 2.32 2.04 2.15 2.33 2.32 2.16 2.36 2.42 2.44 2.42 2.32 1.69 1.26 1.14 1.28 1.44 1.59 1.51 1.52 1.76 2.07
2.52 2.81 3.06 3.32 3.41 3.36 3.40 3.32 3.33 3.20 3.19 3.22 3.17 3.14 2.90 2.68 2.34 2.02 1.99 2.10 2.10 2.03 1.97 1.91 2.06 1.96 1.89 1.89 2.09 2.27 2.34 2.39 2.30 2.16 1.74 1.65 1.62 1.50 1.44 1.46 1.64 1.81 1.98
2.16 2.28 2.41 2.63 2.91 3.08 3.13 3.11 3.14 3.07 3.05 2.97 2.86 2.72 2.50 2.33 2.05 1.77 1.65 1.79 1.90 1.93 1.91 1.89 1.97 1.86 1.85 1.98 1.95 2.01 2.22 2.23 2.23 2.37 2.03 1.86 1.82 1.58 1.51 1.57 1.62 1.81 1.89

GEFSSE_prec_meanprecacc_246.txt.gz
Total_Precipitation_Accumulation
1.16 1.31 1.59 1.29 1.01 1.00 1.05 1.05 1.05 0.89 0.83 0.89 0.93 0.85 0.86 0.92 0.87 0.87 0.85 0.90 1.01 1.08 1.04 1.03 0.97 0.96 0.91 0.83 0.84 0.73 0.67 0.66 0.69 0.75 0.80 0.79 0.86 1.12 1.42 1.51 1.58 1.06 1.05
0.77 0.96 1.33 1.20 0.96 0.91 0.93 0.93 0.92 0.90 0.85 0.86 0.92 0.93 0.98 1.00 0.92 0.88 0.95 0.97 0.99 1.01 0.91 0.81 0.77 0.75 0.72 0.67 0.61 0.55 0.63 0.73 0.84 1.02 1.00 0.84 0.88 1.12 1.36 1.39 1.55 0.99 0.92
0.60 0.67 0.78 0.94 0.86 0.82 0.90 0.92 0.93 0.98 0.97 0.93 0.91 0.94 0.98 1.00 0.97 0.99 0.98 0.90 0.89 0.89 0.79 0.71 0.64 0.57 0.53 0.52 0.52 0.56 0.71 0.91 1.17 1.34 1.46 0.91 0.67 1.05 1.16 1.14 1.06 0.89 0.87
0.54 0.52 0.47 0.68 0.70 0.73 0.85 0.91 1.03 1.03 0.97 0.89 0.90 0.90 0.92 1.04 1.03 0.94 0.86 0.81 0.83 0.77 0.70 0.61 0.54 0.46 0.44 0.42 0.48 0.64 0.83 1.00 1.24 1.64 1.57 0.80 0.51 0.75 0.92 0.93 0.85 0.84 0.78
0.47 0.49 0.55 0.65 0.64 0.73 0.82 0.90 0.97 0.87 0.81 0.83 0.86 0.88 0.96 0.97 0.92 0.86 0.80 0.78 0.77 0.69 0.61 0.52 0.48 0.44 0.43 0.45 0.54 0.71 0.85 0.98 1.35 1.49 1.00 0.87 0.85 0.84 0.79 0.87 0.90 0.81 0.67
0.40 0.46 0.51 0.58 0.63 0.68 0.69 0.74 0.84 0.86 0.80 0.81 0.80 0.84 0.86 0.87 0.90 0.80 0.72 0.70 0.70 0.66 0.58 0.55 0.48 0.45 0.46 0.51 0.57 0.70 0.88 1.13 1.27 0.88 0.71 0.68 0.71 0.84 0.80 0.98 1.07 0.90 0.74
0.43 0.49 0.49 0.61 0.67 0.66 0.64 0.66 0.70 0.76 0.79 0.81 0.78 0.78 0.79 0.78 0.79 0.72 0.65 0.61 0.63 0.58 0.53 0.53 0.49 0.50 0.54 0.57 0.62 0.73 0.94 1.28 1.02 0.69 0.72 0.75 0.70 0.74 0.88 1.13 1.31 1.15 0.93
0.61 0.63 0.61 0.70 0.71 0.70 0.66 0.67 0.64 0.64 0.67 0.65 0.64 0.67 0.67 0.63 0.65 0.69 0.69 0.59 0.55 0.51 0.49 0.50 0.49 0.53 0.59 0.64 0.70 0.77 0.98 1.03 0.64 0.60 0.59 0.60 0.55 0.63 0.88 1.13 1.32 1.31 1.20
0.88 0.76 0.74 0.82 0.83 0.76 0.84 0.78 0.70 0.63 0.62 0.62 0.60 0.63 0.62 0.57 0.56 0.61 0.72 0.66 0.54 0.54 0.55 0.55 0.55 0.57 0.61 0.69 0.71 0.79 0.95 0.99 0.76 0.68 0.56 0.55 0.56 0.79 1.13 1.28 1.30 1.32 1.29
1.36 1.14 1.01 0.96 0.87 0.81 0.80 0.80 0.76 0.70 0.65 0.64 0.61 0.56 0.61 0.60 0.57 0.64 0.70 0.71 0.63 0.64 0.75 0.73 0.71 0.70 0.68 0.67 0.74 0.84 0.91 0.86 0.86 0.78 0.65 0.51 0.66 0.96 1.28 1.43 1.47 1.46 1.35
1.64 1.51 1.27 1.05 0.96 0.94 0.81 0.75 0.85 0.83 0.79 0.78 0.77 0.73 0.86 0.97 0.84 0.90 0.85 0.93 0.90 0.89 1.00 1.05 1.07 1.02 0.92 0.82 0.94 1.04 0.93 0.95 1.03 0.91 0.69 0.55 0.78 1.06 1.34 1.47 1.48 1.50 1.38
1.88 1.64 1.49 1.28 1.06 0.93 0.81 0.93 1.18 0.99 1.01 1.09 1.15 1.15 1.37 1.57 1.54 1.02 1.06 1.33 1.41 1.47 1.53 1.59 1.65 1.41 1.19 1.13 1.53 1.69 1.11 1.07 1.17 1.06 0.89 0.86 1.10 1.33 1.57 1.52 1.43 1.46 1.37
2.18 1.93 1.74 1.48 1.21 1.05 1.10 1.00 1.15 1.31 1.41 1.44 1.43 1.45 1.62 1.51 1.28 1.13 1.26 1.54 1.78 1.87 1.86 2.10 2.10 1.76 1.80 2.04 2.02 1.81 1.34 1.44 1.48 1.39 1.21 1.28 1.51 1.79 2.13 1.92 1.59 1.45 1.39
2.31 2.18 2.16 1.75 1.58 1.63 1.44 1.17 1.09 1.12 1.25 1.44 1.67 1.63 1.74 1.96 1.84 1.75 1.83 1.86 1.99 2.22 2.61 2.52 2.63 2.47 2.43 2.34 2.23 2.07 1.83 1.87 1.86 1.95 1.82 1.61 1.70 1.98 2.46 2.44 1.99 1.67 1.48
2.32 2.34 2.34 2.13 1.96 2.04 1.82 1.60 1.35 1.46 1.48 1.55 1.67 1.82 1.78 2.06 2.25 2.21 2.17 2.12 2.00 2.11 2.32 2.53 2.55 2.90 3.02 2.63 2.25 2.08 2.09 2.16 2.08 2.04 1.92 1.79 1.72 1.89 2.31 2.56 2.44 2.19 1.87
2.61 2.67 2.47 2.36 2.35 2.35 2.28 2.21 2.09 1.83 1.90 1.81 1.76 1.77 1.83 2.08 2.38 2.50 2.36 2.32 2.16 2.15 2.30 2.49 2.64 3.14 3.13 2.93 2.51 2.24 2.16 2.11 1.95 1.87 1.94 2.11 1.95 1.83 2.00 2.34 2.59 2.54 2.37
2.97 3.02 3.01 2.96 3.07 2.99 2.83 2.69 2.48 2.29 2.14 2.10 2.16 2.17 2.06 2.12 2.38 2.42 2.25 2.15 2.18 2.34 2.53 2.54 2.67 2.96 2.72 2.71 2.49 2.26 2.06 1.86 1.71 1.67 1.84 2.04 1.93 1.87 2.03 2.21 2.42 2.55 2.66
3.18 3.35 3.53 3.51 3.51 3.35 3.34 3.26 3.00 2.77 2.60 2.42 2.36 2.41 2.25 2.20 2.26 2.46 2.27 2.11 2.41 2.46 2.58 2.85 2.97 2.97 2.91 2.91 2.64 2.28 2.02 1.89 1.56 1.46 1.49 1.65 1.87 1.67 1.95 2.18 2.22 2.30 2.59
3.63 3.89 4.08 4.07 3.91 3.65 3.68 3.65 3.49 3.32 2.99 2.63 2.49 2.40 2.27 2.23 2.33 2.59 2.57 2.66 2.71 2.77 2.81 2.68 3.06 3.09 2.95 2.98 2.57 2.32 1.96 1.71 1.54 1.37 1.32 1.32 1.54 1.71 1.77 1.83 1.96 2.07 2.46
4.13 4.53 4.38 4.27 4.44 4.31 4.15 4.00 3.72 3.27 2.85 2.71 2.67 2.48 2.34 2.37 2.45 2.83 2.69 2.70 2.75 2.90 2.96 2.93 3.01 3.02 2.74 2.73 2.41 2.22 1.86 1.44 1.38 1.33 1.18 1.18 1.29 1.33 1.58 1.87 2.04 1.81 2.14
4.18 4.57 4.72 4.73 4.61 4.41 4.01 3.68 3.43 3.20 3.02 2.77 2.61 2.55 2.43 2.30 2.45 2.85 2.72 2.93 2.88 2.87 2.88 2.91 2.98 2.88 2.51 2.68 2.73 2.25 1.72 1.35 1.37 1.20 1.14 1.19 1.24 1.26 1.55 1.88 2.10 2.06 1.87
3.83 4.29 4.59 4.73 4.62 4.22 3.82 3.60 3.46 3.39 3.02 2.73 2.69 2.78 2.62 2.61 2.65 2.68 2.86 2.83 2.88 2.97 2.90 2.86 2.94 2.76 2.35 2.53 2.78 2.84 2.20 1.79 1.39 1.03 1.15 1.25 1.35 1.46 1.52 1.64 1.85 2.03 2.02
3.37 3.68 3.80 3.95 3.92 3.76 3.78 3.77 3.69 3.64 3.18 3.06 3.05 3.03 2.85 2.83 2.84 2.84 2.83 2.76 2.74 2.57 2.60 2.64 2.66 2.68 2.55 2.43 2.68 2.99 2.55 2.05 1.71 1.23 1.15 1.22 1.40 1.63 1.66 1.71 1.72 1.91 2.07
2.91 3.26 3.49 3.55 3.50 3.41 3.50 3.54 3.41 3.21 3.04 3.13 3.39 3.34 3.07 2.84 2.67 2.47 2.42 2.52 2.51 2.35 2.37 2.08 2.20 2.38 2.37 2.21 2.44 2.49 2.51 2.48 2.38 1.72 1.30 1.18 1.34 1.52 1.66 1.57 1.59 1.83 2.13
2.52 2.81 3.06 3.32 3.41 3.36 3.40 3.33 3.34 3.21 3.20 3.23 3.18 3.16 2.93 2.72 2.40 2.08 2.06 2.18 2.17 2.10 2.02 1.96 2.13 2.02 1.94 1.94 2.16 2.36 2.42 2.46 2.38 2.21 1.79 1.68 1.66 1.55 1.50 1.52 1.71 1.88 2.07
2.16 2.28 2.41 2.63 2.91 3.08 3.14 3.12 3.14 3.08 3.06 2.98 2.87 2.73 2.52 2.35 2.08 1.81 1.70 1.86 1.99 2.01 1.97 1.95 2.03 1.93 1.92 2.04 2.03 2.11 2.32 2.31 2.30 2.44 2.09 1.91 1.86 1.62 1.55 1.62 1.68 1.89 1.98

GEFSSE_prec_meanprecacc_252.txt.gz
Total_Precipitation_Accumulation
1.23 1.42 1.86 1.51 1.13 1.10 1.13 1.13 1.13 0.95 0.89 0.95 1.00 0.93 0.93 0.99 0.98 1.02 1.05 1.14 1.29 1.34 1.22 1.20 1.13 1.12 1.07 0.93 0.93 0.81 0.74 0.71 0.74 0.79 0.84 0.82 0.90 1.16 1.46 1.55 1.61 1.08 1.08
0.83 1.05 1.53 1.42 1.11 1.03 1.02 1.00 0.98 0.97 0.92 0.94 1.00 1.00 1.05 1.07 0.99 0.97 1.06 1.11 1.17 1.16 1.04 0.95 0.90 0.88 0.84 0.76 0.68 0.61 0.68 0.78 0.88 1.06 1.04 0.87 0.92 1.16 1.39 1.43 1.58 1.01 0.95
0.65 0.75 0.92 1.08 0.97 0.93 0.99 1.00 1.01 1.08 1.07 1.03 1.01 1.03 1.03 1.06 1.03 1.06 1.05 0.99 1.00 1.00 0.89 0.81 0.72 0.66 0.62 0.58 0.57 0.60 0.75 0.95 1.20 1.38 1.49 0.93 0.70 1.08 1.17 1.17 1.08 0.92 0.90
0.58 0.59 0.61 0.80 0.81 0.83 0.94 0.99 1.13 1.14 1.07 0.98 0.98 0.96 0.97 1.09 1.09 1.02 0.94 0.89 0.92 0.85 0.77 0.67 0.59 0.52 0.49 0.47 0.52 0.67 0.86 1.02 1.27 1.67 1.59 0.81 0.53 0.76 0.93 0.95 0.88 0.86 0.81
0.50 0.55 0.64 0.78 0.78 0.85 0.91 0.99 1.05 0.96 0.90 0.94 0.96 0.97 1.04 1.05 0.99 0.93 0.88 0.85 0.84 0.74 0.65 0.57 0.53 0.49 0.47 0.47 0.57 0.74 0.88 1.02 1.39 1.52 1.00 0.88 0.86 0.86 0.81 0.89 0.92 0.83 0.69
0.44 0.51 0.59 0.71 0.76 0.78 0.77 0.81 0.91 0.92 0.87 0.90 0.89 0.92 0.92 0.94 0.96 0.87 0.79 0.77 0.75 0.71 0.63 0.58 0.52 0.49 0.50 0.54 0.61 0.74 0.93 1.17 1.31 0.89 0.72 0.68 0.72 0.86 0.82 1.00 1.09 0.92 0.76
0.48 0.53 0.55 0.73 0.79 0.75 0.71 0.73 0.76 0.83 0.85 0.85 0.83 0.82 0.83 0.84 0.86 0.79 0.72 0.68 0.68 0.62 0.56 0.56 0.53 0.53 0.57 0.60 0.66 0.76 0.97 1.31 1.03 0.70 0.72 0.75 0.71 0.76 0.90 1.15 1.34 1.18 0.96
0.67 0.68 0.67 0.82 0.86 0.82 0.75 0.74 0.70 0.70 0.71 0.69 0.68 0.70 0.71 0.67 0.71 0.75 0.75 0.65 0.60 0.54 0.51 0.52 0.52 0.55 0.62 0.66 0.73 0.81 1.01 1.05 0.64 0.60 0.59 0.62 0.57 0.64 0.90 1.15 1.34 1.33 1.23
0.93 0.81 0.79 0.88 0.93 0.86 0.91 0.84 0.75 0.68 0.67 0.66 0.64 0.67 0.65 0.60 0.60 0.65 0.76 0.72 0.58 0.56 0.57 0.58 0.58 0.60 0.64 0.71 0.74 0.84 0.98 1.01 0.77 0.69 0.57 0.59 0.61 0.82 1.16 1.31 1.33 1.35 1.32
1.40 1.17 1.05 0.99 0.91 0.86 0.85 0.86 0.82 0.75 0.70 0.69 0.66 0.62 0.67 0.65 0.61 0.69 0.77 0.78 0.71 0.70 0.79 0.77 0.75 0.73 0.70 0.70 0.77 0.89 0.95 0.89 0.87 0.78 0.65 0.54 0.70 1.00 1.31 1.46 1.50 1.50 1.40
1.66 1.53 1.29 1.07 0.98 0.96 0.83 0.78 0.89 0.88 0.85 0.84 0.82 0.78 0.90 1.01 0.87 0.93 0.91 1.04 1.04 1.00 1.10 1.13 1.13 1.07 0.96 0.86 0.98 1.08 0.96 0.96 1.03 0.92 0.70 0.57 0.80 1.09 1.36 1.49 1.49 1.53 1.44
1.90 1.66 1.50 1.29 1.07 0.94 0.82 0.94 1.19 1.01 1.02 1.10 1.17 1.17 1.39 1.59 1.55 1.04 1.12 1.43 1.55 1.59 1.64 1.69 1.74 1.49 1.24 1.16 1.56 1.72 1.12 1.08 1.18 1.08 0.91 0.88 1.14 1.38 1.61 1.55 1.46 1.49 1.41
2.20 1.96 1.77 1.51 1.23 1.06 1.11 1.00 1.15 1.33 1.42 1.45 1.44 1.47 1.64 1.53 1.30 1.16 1.31 1.62 1.87 1.94 1.92 2.15 2.16 1.81 1.85 2.08 2.04 1.83 1.35 1.46 1.51 1.40 1.23 1.31 1.55 1.85 2.20 1.98 1.64 1.50 1.44
2.32 2.20 2.18 1.77 1.60 1.64 1.44 1.17 1.09 1.13 1.26 1.46 1.69 1.66 1.77 1.98 1.86 1.77 1.87 1.92 2.05 2.27 2.65 2.55 2.66 2.51 2.47 2.38 2.27 2.10 1.86 1.91 1.89 1.97 1.84 1.64 1.75 2.05 2.54 2.52 2.06 1.72 1.54
2.33 2.35 2.35 2.14 1.98 2.06 1.83 1.61 1.35 1.46 1.49 1.56 1.69 1.84 1.80 2.08 2.27 2.24 2.20 2.16 2.05 2.15 2.35 2.56 2.58 2.92 3.05 2.67 2.29 2.12 2.12 2.20 2.10 2.07 1.94 1.82 1.77 1.96 2.39 2.66 2.52 2.25 1.94
2.62 2.68 2.47 2.37 2.36 2.37 2.29 2.23 2.10 1.83 1.91 1.82 1.77 1.79 1.85 2.11 2.41 2.54 2.40 2.36 2.21 2.18 2.34 2.53 2.67 3.17 3.17 2.97 2.54 2.26 2.18 2.13 1.99 1.90 1.97 2.14 2.01 1.91 2.08 2.45 2.70 2.65 2.47
2.98 3.03 3.02 2.97 3.09 3.01 2.84 2.72 2.50 2.30 2.15 2.11 2.17 2.19 2.09 2.17 2.44 2.47 2.29 2.19 2.24 2.39 2.58 2.58 2.72 3.00 2.75 2.75 2.53 2.30 2.10 1.89 1.74 1.71 1.88 2.06 1.96 1.93 2.10 2.31 2.54 2.67 2.80
3.20 3.37 3.55 3.53 3.54 3.37 3.35 3.28 3.03 2.79 2.61 2.44 2.38 2.43 2.28 2.26 2.34 2.53 2.32 2.15 2.47 2.52 2.64 2.91 3.03 3.03 2.96 2.96 2.69 2.32 2.06 1.94 1.61 1.52 1.53 1.68 1.90 1.70 1.99 2.26 2.33 2.44 2.76
3.64 3.90 4.10 4.09 3.94 3.68 3.71 3.67 3.52 3.37 3.03 2.67 2.51 2.43 2.29 2.27 2.39 2.68 2.63 2.71 2.76 2.83 2.87 2.74 3.13 3.15 3.01 3.04 2.63 2.37 2.02 1.77 1.59 1.42 1.36 1.35 1.59 1.76 1.82 1.90 2.06 2.21 2.64
4.14 4.54 4.39 4.29 4.47 4.35 4.17 4.02 3.75 3.31 2.89 2.75 2.71 2.51 2.37 2.39 2.49 2.90 2.75 2.76 2.81 2.94 3.00 2.97 3.07 3.08 2.81 2.80 2.48 2.28 1.91 1.49 1.43 1.37 1.22 1.22 1.32 1.37 1.63 1.92 2.11 1.92 2.29
4.19 4.57 4.73 4.74 4.63 4.43 4.04 3.71 3.46 3.24 3.05 2.80 2.63 2.57 2.45 2.33 2.48 2.89 2.76 2.99 2.94 2.90 2.91 2.96 3.06 2.96 2.60 2.76 2.81 2.32 1.77 1.40 1.41 1.24 1.19 1.23 1.28 1.30 1.59 1.94 2.18 2.15 1.97
3.84 4.29 4.59 4.74 4.62 4.23 3.83 3.62 3.48 3.42 3.04 2.74 2.71 2.79 2.65 2.65 2.69 2.72 2.89 2.86 2.92 3.01 2.93 2.90 2.99 2.80 2.42 2.61 2.86 2.90 2.23 1.83 1.43 1.07 1.19 1.29 1.40 1.51 1.57 1.70 1.91 2.11 2.11
3.37 3.68 3.80 3.95 3.92 3.76 3.78 3.78 3.70 3.65 3.19 3.07 3.06 3.05 2.87 2.87 2.89 2.89 2.86 2.79 2.78 2.61 2.64 2.67 2.69 2.70 2.59 2.50 2.75 3.04 2.58 2.08 1.75 1.27 1.20 1.26 1.45 1.67 1.71 1.76 1.78 1.97 2.13
2.91 3.26 3.49 3.55 3.50 3.41 3.51 3.56 3.42 3.21 3.04 3.14 3.41 3.36 3.10 2.88 2.73 2.54 2.48 2.60 2.60 2.43 2.43 2.12 2.25 2.44 2.44 2.27 2.49 2.54 2.54 2.52 2.41 1.76 1.36 1.22 1.38 1.58 1.72 1.63 1.65 1.88 2.17
2.52 2.81 3.06 3.32 3.41 3.36 3.41 3.34 3.35 3.23 3.21 3.24 3.19 3.18 2.96 2.77 2.45 2.13 2.14 2.28 2.28 2.19 2.10 2.01 2.17 2.07 2.00 2.00 2.22 2.41 2.47 2.50 2.40 2.25 1.86 1.75 1.70 1.59 1.53 1.55 1.75 1.91 2.11
2.16 2.28 2.41 2.63 2.92 3.09 3.14 3.12 3.15 3.09 3.07 2.98 2.88 2.74 2.55 2.39 2.12 1.85 1.76 1.94 2.07 2.06 2.01 1.99 2.07 1.97 1.98 2.10 2.08 2.15 2.37 2.35 2.32 2.46 2.12 1.95 1.89 1.64 1.57 1.64 1.70 1.90 2.00